AFL2615 UUEE-FSIA

Flight info

Callsign AFL2615
Flight time 9h 40m
Altitude 35000
Route TOGMO3H TOGMO M56 DENUD M161 MILSO M875 INDUD/K0896F370 M875 AMDAR/N0484F370 M875 TAPIS L509 LAJAK M881 LAKRA/N0484F380 G325 PG T385 TAPDO G652 GEPOT B400 HAI R401 SUHIL UM314 UDLET/N0500F370 DCT TILOM TILOM1E
Aircraft A359/H-SDE2E3GHIJ3J4J5LM1ORWXY/LB1D1

Departure

Time 2026-04-25 21:12
Airport Sheremetyevo International Airport (UUEE)

Arrival

Time 2026-04-26 06:52
Airport Seychelles International Airport (FSIA)
Time Latitude Longitude Altitude Speed Heading
2026-04-25 20:37 55.97793 37.41020 647 ft 0 kts 76°
2026-04-25 20:56 55.97790 37.40999 650 ft 2 kts 76°
2026-04-25 20:57 55.97786 37.40971 650 ft 2 kts 76°
2026-04-25 20:57 55.97782 37.40944 646 ft 2 kts 76°
2026-04-25 20:57 55.97778 37.40911 646 ft 3 kts 84°
2026-04-25 20:57 55.97781 37.40874 648 ft 3 kts 115°
2026-04-25 20:58 55.97794 37.40838 649 ft 3 kts 141°
2026-04-25 20:58 55.97803 37.40828 649 ft 0 kts 163°
2026-04-25 21:02 55.97771 37.40845 645 ft 9 kts 163°
2026-04-25 21:02 55.97692 37.40886 645 ft 15 kts 163°
2026-04-25 21:02 55.97611 37.40971 649 ft 11 kts 109°
2026-04-25 21:03 55.97603 37.41087 649 ft 7 kts 115°
2026-04-25 21:03 55.97569 37.41141 645 ft 7 kts 151°
2026-04-25 21:03 55.97541 37.41208 645 ft 5 kts 88°
2026-04-25 21:03 55.97558 37.41335 645 ft 17 kts 75°
2026-04-25 21:04 55.97598 37.41605 647 ft 27 kts 75°
2026-04-25 21:04 55.97643 37.41905 645 ft 6 kts 75°
2026-04-25 21:04 55.97650 37.41949 646 ft 9 kts 75°
2026-04-25 21:04 55.97676 37.42128 646 ft 20 kts 75°
2026-04-25 21:05 55.97721 37.42432 649 ft 29 kts 75°
2026-04-25 21:05 55.97771 37.42766 645 ft 27 kts 75°
2026-04-25 21:05 55.97816 37.43074 645 ft 25 kts 75°
2026-04-25 21:05 55.97858 37.43359 645 ft 23 kts 75°
2026-04-25 21:06 55.97897 37.43625 646 ft 22 kts 75°
2026-04-25 21:06 55.97929 37.43842 645 ft 0 kts 75°
2026-04-25 21:06 55.97933 37.43867 645 ft 7 kts 75°
2026-04-25 21:06 55.97945 37.43947 645 ft 10 kts 79°
2026-04-25 21:07 55.97945 37.43958 645 ft 0 kts 88°
2026-04-25 21:08 55.97945 37.43959 645 ft 1 kts 89°
2026-04-25 21:08 55.97933 37.44005 647 ft 8 kts 124°
2026-04-25 21:08 55.97868 37.44066 646 ft 14 kts 162°
2026-04-25 21:08 55.97790 37.44035 648 ft 0 kts 241°
2026-04-25 21:09 55.97785 37.44012 647 ft 4 kts 250°
2026-04-25 21:09 55.97776 37.43970 646 ft 3 kts 250°
2026-04-25 21:09 55.97775 37.43964 649 ft 0 kts 254°
2026-04-25 21:11 55.97772 37.43942 649 ft 12 kts 254°
2026-04-25 21:11 55.97689 37.43388 650 ft 81 kts 256°
2026-04-25 21:11 55.97486 37.42043 648 ft 142 kts 255°
2026-04-25 21:11 55.97187 37.40048 810 ft 177 kts 254°
2026-04-25 21:12 55.96878 37.38007 1783 ft 162 kts 251°
2026-04-25 21:12 55.96617 37.35987 2388 ft 173 kts 252°
2026-04-25 21:12 55.96306 37.33905 2818 ft 178 kts 251°
2026-04-25 21:12 55.96187 37.33181 2920 ft 181 kts 251°
2026-04-25 21:13 55.95521 37.29452 3466 ft 200 kts 251°
2026-04-25 21:13 55.95116 37.26967 3683 ft 217 kts 252°
2026-04-25 21:13 55.94696 37.24291 3995 ft 230 kts 252°
2026-04-25 21:13 55.94258 37.21487 4438 ft 238 kts 252°
2026-04-25 21:14 55.93811 37.18629 4960 ft 242 kts 252°
2026-04-25 21:14 55.93353 37.15708 5525 ft 244 kts 252°
2026-04-25 21:14 55.92894 37.12782 6146 ft 246 kts 252°
2026-04-25 21:14 55.92427 37.09827 6725 ft 249 kts 253°
2026-04-25 21:15 55.91957 37.06849 7324 ft 251 kts 253°
2026-04-25 21:15 55.91642 37.03780 7955 ft 254 kts 267°
2026-04-25 21:15 55.91972 37.00677 8596 ft 260 kts 291°
2026-04-25 21:15 55.93072 36.98060 9216 ft 269 kts 315°
2026-04-25 21:16 55.94563 36.96066 9512 ft 274 kts 320°
2026-04-25 21:16 55.96142 36.94168 9544 ft 276 kts 321°
2026-04-25 21:16 55.97839 36.92486 9541 ft 283 kts 334°
2026-04-25 21:16 55.99145 36.91946 9539 ft 290 kts 351°
2026-04-25 21:17 56.01785 36.92990 9678 ft 305 kts 25°
2026-04-25 21:17 56.03612 36.95018 10172 ft 310 kts 30°
2026-04-25 21:17 56.05403 36.97158 10853 ft 309 kts 30°
2026-04-25 21:17 56.07201 36.99295 11486 ft 310 kts 30°
2026-04-25 21:18 56.08394 37.00707 11883 ft 311 kts 30°
2026-04-25 21:18 56.10223 37.02915 12374 ft 315 kts 33°
2026-04-25 21:18 56.11739 37.05697 12533 ft 320 kts 56°
2026-04-25 21:18 56.12625 37.09463 12554 ft 338 kts 74°
2026-04-25 21:19 56.13219 37.13590 12544 ft 345 kts 76°
2026-04-25 21:19 56.13787 37.17791 12545 ft 347 kts 76°
2026-04-25 21:19 56.14365 37.21997 12612 ft 348 kts 76°
2026-04-25 21:19 56.14883 37.26247 13015 ft 351 kts 83°
2026-04-25 21:20 56.15010 37.30608 13659 ft 350 kts 94°
2026-04-25 21:20 56.14789 37.33475 13991 ft 351 kts 107°
2026-04-25 21:20 56.13250 37.38518 14636 ft 345 kts 137°
2026-04-25 21:20 56.11546 37.41540 15140 ft 347 kts 141°
2026-04-25 21:21 56.09767 37.44488 15602 ft 350 kts 142°
2026-04-25 21:21 56.07964 37.47452 16105 ft 353 kts 142°
2026-04-25 21:21 56.06145 37.50442 16600 ft 356 kts 142°
2026-04-25 21:21 56.04309 37.53457 17094 ft 359 kts 142°
2026-04-25 21:22 56.02460 37.56489 17567 ft 363 kts 142°
2026-04-25 21:22 56.00594 37.59546 18031 ft 366 kts 143°
2026-04-25 21:22 55.98705 37.62636 18429 ft 370 kts 143°
2026-04-25 21:22 55.96797 37.65754 18805 ft 374 kts 143°
2026-04-25 21:23 55.94894 37.68861 19208 ft 377 kts 143°
2026-04-25 21:23 55.92946 37.72043 19606 ft 381 kts 143°
2026-04-25 21:23 55.91099 37.75496 19972 ft 390 kts 135°
2026-04-25 21:23 55.89364 37.79320 20185 ft 402 kts 132°
2026-04-25 21:24 55.87672 37.83376 20383 ft 413 kts 130°
2026-04-25 21:24 55.85972 37.87601 20595 ft 423 kts 129°
2026-04-25 21:24 55.84243 37.91924 20800 ft 433 kts 129°
2026-04-25 21:24 55.82466 37.96338 20996 ft 443 kts 130°
2026-04-25 21:25 55.80638 38.00826 21200 ft 453 kts 130°
2026-04-25 21:25 55.78764 38.05383 21400 ft 462 kts 130°
2026-04-25 21:25 55.76866 38.09966 21595 ft 471 kts 130°
2026-04-25 21:25 55.74901 38.14686 21784 ft 479 kts 130°
2026-04-25 21:26 55.72905 38.19471 22150 ft 484 kts 130°
2026-04-25 21:26 55.70889 38.24296 22550 ft 489 kts 130°
2026-04-25 21:26 55.68858 38.29150 22943 ft 493 kts 130°
2026-04-25 21:26 55.66805 38.34044 23308 ft 497 kts 130°
2026-04-25 21:27 55.64731 38.38980 23662 ft 500 kts 130°
2026-04-25 21:27 55.62645 38.43935 24023 ft 503 kts 130°
2026-04-25 21:27 55.60541 38.48921 24376 ft 506 kts 130°
2026-04-25 21:27 55.58429 38.53916 24705 ft 510 kts 130°
2026-04-25 21:28 55.56294 38.58954 25023 ft 514 kts 130°
2026-04-25 21:28 55.54141 38.64025 25351 ft 517 kts 130°
2026-04-25 21:28 55.51975 38.69116 25708 ft 520 kts 130°
2026-04-25 21:28 55.49797 38.74224 26049 ft 523 kts 130°
2026-04-25 21:29 55.47598 38.79371 26398 ft 525 kts 130°
2026-04-25 21:29 55.45390 38.84526 26738 ft 528 kts 130°
2026-04-25 21:29 55.43168 38.89705 27062 ft 531 kts 130°
2026-04-25 21:29 55.40963 38.94833 27352 ft 534 kts 130°
2026-04-25 21:30 55.38710 39.00061 27635 ft 537 kts 130°
2026-04-25 21:30 55.36445 39.05307 27947 ft 540 kts 130°
2026-04-25 21:30 55.34164 39.10578 28245 ft 543 kts 130°
2026-04-25 21:30 55.32615 39.14151 28438 ft 545 kts 130°
2026-04-25 21:31 55.29563 39.21179 28818 ft 548 kts 130°
2026-04-25 21:31 55.27239 39.26514 29099 ft 550 kts 130°
2026-04-25 21:31 55.24915 39.31839 29493 ft 549 kts 130°
2026-04-25 21:31 55.22586 39.37163 29851 ft 549 kts 130°
2026-04-25 21:32 55.20257 39.42476 30159 ft 549 kts 130°
2026-04-25 21:32 55.17938 39.47756 30607 ft 545 kts 130°
2026-04-25 21:32 55.15629 39.53004 31053 ft 542 kts 130°
2026-04-25 21:32 55.13365 39.58139 31447 ft 539 kts 130°
2026-04-25 21:33 55.11079 39.63310 31805 ft 537 kts 130°
2026-04-25 21:33 55.08794 39.68467 32156 ft 535 kts 130°
2026-04-25 21:33 55.06515 39.73598 32480 ft 534 kts 131°
2026-04-25 21:33 55.04240 39.78711 32769 ft 532 kts 130°
2026-04-25 21:34 55.01964 39.83815 33119 ft 530 kts 131°
2026-04-25 21:34 54.99706 39.88869 33434 ft 528 kts 131°
2026-04-25 21:34 54.97450 39.93909 33720 ft 527 kts 131°
2026-04-25 21:34 54.95196 39.98933 33940 ft 526 kts 131°
2026-04-25 21:35 54.92940 40.03952 34133 ft 525 kts 131°
2026-04-25 21:35 54.90687 40.08951 34302 ft 525 kts 131°
2026-04-25 21:35 54.88434 40.13941 34474 ft 525 kts 131°
2026-04-25 21:35 54.86207 40.18864 34651 ft 524 kts 131°
2026-04-25 21:36 54.81670 40.28862 34699 ft 530 kts 131°
2026-04-25 21:36 54.77086 40.38923 34708 ft 530 kts 131°
2026-04-25 21:37 54.73281 40.47247 34713 ft 530 kts 131°
2026-04-25 21:37 54.67920 40.58927 34713 ft 530 kts 131°
2026-04-25 21:38 54.63325 40.68894 34721 ft 530 kts 131°
2026-04-25 21:38 54.58749 40.78778 34722 ft 530 kts 131°
2026-04-25 21:39 54.54139 40.88697 34721 ft 530 kts 131°
2026-04-25 21:39 54.49522 40.98589 34727 ft 529 kts 131°
2026-04-25 21:40 54.44901 41.08453 34735 ft 529 kts 131°
2026-04-25 21:40 54.40265 41.18307 34735 ft 529 kts 132°
2026-04-25 21:41 54.35659 41.28060 34738 ft 529 kts 132°
2026-04-25 21:41 54.31023 41.37836 34749 ft 528 kts 132°
2026-04-25 21:42 54.26373 41.47605 34749 ft 528 kts 132°
2026-04-25 21:42 54.21723 41.57335 34755 ft 528 kts 132°
2026-04-25 21:43 54.17063 41.67045 34750 ft 528 kts 132°
2026-04-25 21:43 54.12401 41.76724 34769 ft 527 kts 132°
2026-04-25 21:44 54.07743 41.86357 34774 ft 527 kts 132°
2026-04-25 21:45 54.00749 42.00750 34766 ft 527 kts 132°
2026-04-25 21:45 53.96064 42.10343 34777 ft 527 kts 132°
2026-04-25 21:46 53.91372 42.19916 34782 ft 527 kts 133°
2026-04-25 21:46 53.86669 42.29473 34788 ft 527 kts 133°
2026-04-25 21:47 53.81964 42.38998 34788 ft 527 kts 133°
2026-04-25 21:47 53.77279 42.48443 34788 ft 527 kts 133°
2026-04-25 21:48 53.72566 42.57913 34795 ft 527 kts 133°
2026-04-25 21:48 53.68286 42.67967 34799 ft 531 kts 119°
2026-04-25 21:49 53.65741 42.79653 34807 ft 533 kts 107°
2026-04-25 21:49 53.63813 42.91729 34810 ft 533 kts 105°
2026-04-25 21:50 53.61964 43.03820 34808 ft 533 kts 105°
2026-04-25 21:50 53.60069 43.15913 34813 ft 533 kts 105°
2026-04-25 21:51 53.58150 43.27883 34811 ft 533 kts 105°
2026-04-25 21:51 53.56195 43.39926 34809 ft 533 kts 105°
2026-04-25 21:52 53.54233 43.51932 34812 ft 532 kts 106°
2026-04-25 21:52 53.52258 43.63941 34816 ft 532 kts 106°
2026-04-25 21:53 53.50275 43.75920 34818 ft 532 kts 106°
2026-04-25 21:53 53.48291 43.87821 34820 ft 532 kts 106°
2026-04-25 21:54 53.46288 43.99786 34817 ft 532 kts 106°
2026-04-25 21:54 53.44264 44.11748 34814 ft 532 kts 106°
2026-04-25 21:55 53.42230 44.23687 34816 ft 532 kts 107°
2026-04-25 21:55 53.40184 44.35626 34814 ft 532 kts 107°
2026-04-25 21:56 53.38141 44.47473 34810 ft 532 kts 107°
2026-04-25 21:56 53.36076 44.59374 34816 ft 532 kts 107°
2026-04-25 21:57 53.33998 44.71261 34820 ft 532 kts 107°
2026-04-25 21:57 53.31908 44.83124 34820 ft 532 kts 107°
2026-04-25 21:58 53.29819 44.94910 34821 ft 532 kts 107°
2026-04-25 21:58 53.27707 45.06752 34823 ft 532 kts 107°
2026-04-25 21:59 53.25354 45.18456 34825 ft 531 kts 111°
2026-04-25 21:59 53.22749 45.29988 34823 ft 530 kts 111°
2026-04-25 22:00 53.18871 45.47291 34821 ft 531 kts 111°
2026-04-25 22:00 53.16321 45.58836 34827 ft 531 kts 111°
2026-04-25 22:01 53.13767 45.70376 34828 ft 531 kts 111°
2026-04-25 22:01 53.12069 45.78010 34829 ft 531 kts 111°
2026-04-25 22:02 53.08654 45.93354 34831 ft 530 kts 111°
2026-04-25 22:02 53.06095 46.04874 34831 ft 532 kts 111°
2026-04-25 22:03 53.03518 46.16405 34840 ft 532 kts 111°
2026-04-25 22:03 53.00928 46.27918 34846 ft 532 kts 111°
2026-04-25 22:04 52.98326 46.39418 34846 ft 532 kts 111°
2026-04-25 22:04 52.95718 46.50903 34847 ft 533 kts 111°
2026-04-25 22:05 52.93087 46.62410 34847 ft 533 kts 112°
2026-04-25 22:05 52.90892 46.71952 34854 ft 533 kts 112°
2026-04-25 22:06 52.87807 46.85300 34859 ft 533 kts 112°
2026-04-25 22:06 52.85573 46.94914 34848 ft 533 kts 112°
2026-04-25 22:07 52.82919 47.06288 34866 ft 533 kts 112°
2026-04-25 22:07 52.80282 47.17771 34864 ft 534 kts 111°
2026-04-25 22:08 52.77836 47.29355 34873 ft 534 kts 110°
2026-04-25 22:08 52.75406 47.40933 34869 ft 534 kts 110°
2026-04-25 22:09 52.72936 47.52488 34872 ft 533 kts 111°
2026-04-25 22:09 52.70448 47.63998 34899 ft 533 kts 110°
2026-04-25 22:10 52.67949 47.75511 34881 ft 533 kts 111°
2026-04-25 22:10 52.65438 47.87012 34886 ft 533 kts 111°
2026-04-25 22:11 52.62918 47.98500 34881 ft 533 kts 111°
2026-04-25 22:11 52.60391 48.09963 34889 ft 533 kts 111°
2026-04-25 22:12 52.57872 48.21329 34889 ft 533 kts 111°
2026-04-25 22:12 52.55724 48.30918 34892 ft 533 kts 111°
2026-04-25 22:13 52.52739 48.44172 34891 ft 532 kts 111°
2026-04-25 22:13 52.50163 48.55565 34899 ft 532 kts 112°
2026-04-25 22:14 52.47576 48.66943 34907 ft 532 kts 112°
2026-04-25 22:14 52.44980 48.78301 34907 ft 532 kts 112°
2026-04-25 22:15 52.42376 48.89637 34911 ft 531 kts 112°
2026-04-25 22:16 52.38447 49.06624 34914 ft 532 kts 112°
2026-04-25 22:16 52.35829 49.17878 34914 ft 532 kts 112°
2026-04-25 22:17 52.33176 49.29177 34911 ft 532 kts 112°
2026-04-25 22:17 52.30504 49.40466 34895 ft 532 kts 113°
2026-04-25 22:18 52.27828 49.51752 34909 ft 533 kts 113°
2026-04-25 22:18 52.25137 49.63042 34916 ft 533 kts 113°
2026-04-25 22:19 52.22439 49.74304 34909 ft 533 kts 113°
2026-04-25 22:19 52.19728 49.85562 34910 ft 533 kts 113°
2026-04-25 22:20 52.17012 49.96789 34909 ft 533 kts 113°
2026-04-25 22:20 52.14300 50.07937 34917 ft 533 kts 113°
2026-04-25 22:21 52.11575 50.19087 34913 ft 533 kts 113°
2026-04-25 22:21 52.08825 50.30279 34909 ft 533 kts 114°
2026-04-25 22:22 52.06063 50.41465 34915 ft 534 kts 113°
2026-04-25 22:22 52.03301 50.52595 34912 ft 534 kts 113°
2026-04-25 22:23 52.00512 50.63775 34903 ft 534 kts 113°
2026-04-25 22:23 51.97540 50.74813 34914 ft 532 kts 121°
2026-04-25 22:24 51.92989 50.84119 34900 ft 523 kts 142°
2026-04-25 22:24 51.90087 50.87598 34909 ft 518 kts 153°
2026-04-25 22:24 51.86875 50.90154 34910 ft 511 kts 164°
2026-04-25 22:25 51.80098 50.93452 34919 ft 508 kts 169°
2026-04-25 22:25 51.73244 50.96273 34924 ft 508 kts 170°
2026-04-25 22:26 51.66528 50.99947 34924 ft 516 kts 157°
2026-04-25 22:26 51.60365 51.05885 34929 ft 520 kts 150°
2026-04-25 22:27 51.54315 51.12330 34929 ft 521 kts 149°
2026-04-25 22:27 51.48280 51.18810 34917 ft 521 kts 150°
2026-04-25 22:28 51.42237 51.25233 34942 ft 521 kts 150°
2026-04-25 22:28 51.36204 51.31689 34933 ft 521 kts 150°
2026-04-25 22:29 51.30208 51.38101 34963 ft 521 kts 150°
2026-04-25 22:29 51.24170 51.44529 34959 ft 521 kts 150°
2026-04-25 22:30 51.15252 51.54496 34965 ft 525 kts 141°
2026-04-25 22:30 51.11083 51.61577 34957 ft 529 kts 133°
2026-04-25 22:31 51.05609 51.72053 34960 ft 530 kts 132°
2026-04-25 22:31 51.00943 51.81139 34962 ft 531 kts 132°
2026-04-25 22:32 50.96243 51.90198 34971 ft 530 kts 132°
2026-04-25 22:32 50.91524 51.99207 34974 ft 530 kts 132°
2026-04-25 22:33 50.86823 52.08138 34995 ft 531 kts 132°
2026-04-25 22:33 50.82081 52.17116 34977 ft 532 kts 132°
2026-04-25 22:34 50.77319 52.26101 34985 ft 532 kts 132°
2026-04-25 22:34 50.72554 52.35063 34978 ft 533 kts 132°
2026-04-25 22:35 50.67776 52.44025 34991 ft 533 kts 132°
2026-04-25 22:35 50.63009 52.53001 34995 ft 533 kts 132°
2026-04-25 22:36 50.58285 52.61887 34995 ft 533 kts 132°
2026-04-25 22:36 50.53506 52.70840 35002 ft 535 kts 132°
2026-04-25 22:37 50.48707 52.79792 35003 ft 535 kts 132°
2026-04-25 22:37 50.43901 52.88728 35008 ft 535 kts 132°
2026-04-25 22:38 50.39088 52.97643 35008 ft 535 kts 133°
2026-04-25 22:38 50.34276 53.06527 35016 ft 535 kts 133°
2026-04-25 22:39 50.29490 53.15332 35015 ft 535 kts 133°
2026-04-25 22:39 50.24657 53.24194 35014 ft 535 kts 133°
2026-04-25 22:40 50.19826 53.33023 35018 ft 533 kts 133°
2026-04-25 22:40 50.14996 53.41819 35023 ft 533 kts 133°
2026-04-25 22:41 50.10173 53.50574 35031 ft 532 kts 133°
2026-04-25 22:41 50.05341 53.59313 35026 ft 533 kts 133°
2026-04-25 22:42 50.00493 53.68051 35034 ft 534 kts 133°
2026-04-25 22:42 49.95635 53.76781 35039 ft 534 kts 133°
2026-04-25 22:43 49.90795 53.85448 35039 ft 534 kts 133°
2026-04-25 22:43 49.85927 53.94146 35045 ft 535 kts 133°
2026-04-25 22:44 49.81033 54.02849 35048 ft 535 kts 133°
2026-04-25 22:44 49.76127 54.11539 35052 ft 535 kts 134°
2026-04-25 22:45 49.71219 54.20208 35045 ft 535 kts 134°
2026-04-25 22:45 49.66309 54.28854 35053 ft 536 kts 134°
2026-04-25 22:46 49.61408 54.37457 35056 ft 536 kts 134°
2026-04-25 22:46 49.56477 54.46085 35044 ft 536 kts 134°
2026-04-25 22:47 49.51530 54.54708 35058 ft 537 kts 134°
2026-04-25 22:47 49.46581 54.63309 35061 ft 537 kts 134°
2026-04-25 22:48 49.41621 54.71899 35061 ft 537 kts 134°
2026-04-25 22:48 49.36658 54.80466 35062 ft 537 kts 134°
2026-04-25 22:49 49.31684 54.89024 35063 ft 538 kts 134°
2026-04-25 22:49 49.26698 54.97577 35069 ft 538 kts 134°
2026-04-25 22:50 49.21737 55.06056 35065 ft 538 kts 134°
2026-04-25 22:50 49.16736 55.14578 35066 ft 539 kts 134°
2026-04-25 22:51 49.11720 55.23103 35073 ft 539 kts 134°
2026-04-25 22:51 49.06698 55.31605 35071 ft 539 kts 134°
2026-04-25 22:52 49.01663 55.40101 35099 ft 539 kts 134°
2026-04-25 22:52 48.97483 55.47134 35068 ft 539 kts 134°
2026-04-25 22:53 48.91630 55.56951 35069 ft 539 kts 134°
2026-04-25 22:53 48.86584 55.65386 35072 ft 539 kts 134°
2026-04-25 22:54 48.81533 55.73807 35072 ft 539 kts 134°
2026-04-25 22:54 48.77320 55.80796 35073 ft 539 kts 134°
2026-04-25 22:55 48.72248 55.89181 35074 ft 539 kts 135°
2026-04-25 22:55 48.66353 55.98904 35075 ft 539 kts 135°
2026-04-25 22:56 48.62098 56.05897 35076 ft 539 kts 135°
2026-04-25 22:56 48.57039 56.14178 35076 ft 539 kts 135°
2026-04-25 22:57 48.51944 56.22499 35073 ft 539 kts 135°
2026-04-25 22:57 48.46848 56.30795 35076 ft 539 kts 135°
2026-04-25 22:58 48.41740 56.39073 35079 ft 539 kts 135°
2026-04-25 22:58 48.36623 56.47344 35072 ft 539 kts 135°
2026-04-25 22:59 48.31508 56.55593 35081 ft 539 kts 135°
2026-04-25 22:59 48.26388 56.63833 35078 ft 539 kts 135°
2026-04-25 23:00 48.21294 56.72007 35089 ft 539 kts 135°
2026-04-25 23:00 48.16162 56.80214 35082 ft 539 kts 136°
2026-04-25 23:01 48.11037 56.88382 35072 ft 538 kts 136°
2026-04-25 23:01 48.05931 56.96496 35088 ft 538 kts 136°
2026-04-25 23:02 48.00796 57.04631 35086 ft 538 kts 136°
2026-04-25 23:02 47.95659 57.12744 35088 ft 538 kts 136°
2026-04-25 23:03 47.90519 57.20836 35080 ft 538 kts 136°
2026-04-25 23:03 47.85372 57.28914 35083 ft 537 kts 136°
2026-04-25 23:04 47.80232 57.36958 35086 ft 536 kts 137°
2026-04-25 23:04 47.75081 57.44994 35089 ft 536 kts 137°
2026-04-25 23:05 47.69925 57.53012 35085 ft 536 kts 137°
2026-04-25 23:05 47.64800 57.60958 35088 ft 536 kts 137°
2026-04-25 23:06 47.59644 57.68937 35084 ft 536 kts 137°
2026-04-25 23:06 47.54477 57.76897 35071 ft 536 kts 138°
2026-04-25 23:07 47.49298 57.84847 35082 ft 535 kts 138°
2026-04-25 23:07 47.44123 57.92771 35074 ft 535 kts 138°
2026-04-25 23:08 47.38950 58.00670 35066 ft 535 kts 139°
2026-04-25 23:08 47.33767 58.08561 35081 ft 535 kts 139°
2026-04-25 23:09 47.28588 58.16427 35077 ft 535 kts 139°
2026-04-25 23:09 47.23439 58.24221 35079 ft 535 kts 139°
2026-04-25 23:10 47.18239 58.32054 35082 ft 534 kts 139°
2026-04-25 23:10 47.13057 58.39840 35077 ft 531 kts 139°
2026-04-25 23:11 47.07887 58.47590 35077 ft 531 kts 139°
2026-04-25 23:11 47.02713 58.55322 35077 ft 531 kts 140°
2026-04-25 23:12 46.97532 58.63042 35077 ft 531 kts 140°
2026-04-25 23:12 46.92351 58.70740 35077 ft 531 kts 140°
2026-04-25 23:13 46.87199 58.78374 35077 ft 531 kts 140°
2026-04-25 23:13 46.82002 58.86051 35076 ft 530 kts 140°
2026-04-25 23:14 46.76802 58.93707 35075 ft 530 kts 140°
2026-04-25 23:14 46.71607 59.01336 35063 ft 530 kts 141°
2026-04-25 23:15 46.66439 59.08902 35078 ft 530 kts 141°
2026-04-25 23:15 46.61240 59.16494 35078 ft 530 kts 141°
2026-04-25 23:16 46.56031 59.24080 35053 ft 529 kts 141°
2026-04-25 23:16 46.50826 59.31637 35075 ft 528 kts 142°
2026-04-25 23:17 46.45624 59.39168 35075 ft 528 kts 142°
2026-04-25 23:17 46.40416 59.46684 35030 ft 528 kts 142°
2026-04-25 23:18 46.35247 59.54126 35076 ft 526 kts 142°
2026-04-25 23:18 46.30051 59.61584 35082 ft 526 kts 142°
2026-04-25 23:19 46.24851 59.69025 35080 ft 526 kts 142°
2026-04-25 23:19 46.19623 59.76395 35076 ft 523 kts 144°
2026-04-25 23:20 46.14263 59.83454 35082 ft 521 kts 146°
2026-04-25 23:20 46.08877 59.90449 35080 ft 521 kts 145°
2026-04-25 23:21 46.03542 59.97429 35076 ft 520 kts 145°
2026-04-25 23:21 45.98202 60.04440 35076 ft 520 kts 145°
2026-04-25 23:22 45.92849 60.11459 35075 ft 520 kts 145°
2026-04-25 23:23 45.84873 60.21880 35075 ft 518 kts 146°
2026-04-25 23:23 45.79539 60.28822 35075 ft 518 kts 146°
2026-04-25 23:24 45.74196 60.35757 35036 ft 518 kts 146°
2026-04-25 23:24 45.68846 60.42682 35073 ft 518 kts 146°
2026-04-25 23:25 45.63498 60.49586 35069 ft 518 kts 146°
2026-04-25 23:25 45.58143 60.56482 35020 ft 518 kts 146°
2026-04-25 23:26 45.52831 60.63304 35071 ft 517 kts 146°
2026-04-25 23:26 45.47488 60.70148 35067 ft 517 kts 146°
2026-04-25 23:27 45.41983 60.76621 35072 ft 505 kts 156°
2026-04-25 23:27 45.35902 60.81350 35064 ft 496 kts 162°
2026-04-25 23:28 45.29698 60.85639 35065 ft 494 kts 163°
2026-04-25 23:28 45.23485 60.89848 35028 ft 494 kts 163°
2026-04-25 23:29 45.17284 60.94070 35072 ft 494 kts 163°
2026-04-25 23:29 45.11138 60.98273 35072 ft 494 kts 163°
2026-04-25 23:30 45.04940 61.02508 35069 ft 494 kts 163°
2026-04-25 23:30 44.98770 61.06716 35084 ft 491 kts 163°
2026-04-25 23:31 44.92617 61.10900 35067 ft 490 kts 163°
2026-04-25 23:31 44.86477 61.15061 35026 ft 490 kts 163°
2026-04-25 23:32 44.80344 61.19211 35067 ft 487 kts 163°
2026-04-25 23:32 44.74282 61.23303 35069 ft 486 kts 163°
2026-04-25 23:33 44.68178 61.27411 35030 ft 486 kts 163°
2026-04-25 23:33 44.62086 61.31506 35067 ft 484 kts 163°
2026-04-25 23:34 44.56011 61.35577 35068 ft 484 kts 163°
2026-04-25 23:34 44.49922 61.39646 35043 ft 485 kts 163°
2026-04-25 23:35 44.43870 61.43685 35065 ft 483 kts 164°
2026-04-25 23:35 44.37786 61.47734 35063 ft 483 kts 164°
2026-04-25 23:36 44.31706 61.51769 35030 ft 483 kts 164°
2026-04-25 23:36 44.25640 61.55791 35063 ft 482 kts 165°
2026-04-25 23:37 44.19615 61.59772 35061 ft 482 kts 165°
2026-04-25 23:37 44.13539 61.63782 35039 ft 482 kts 165°
2026-04-25 23:38 44.07474 61.67782 35067 ft 482 kts 165°
2026-04-25 23:38 44.01398 61.71775 35059 ft 482 kts 165°
2026-04-25 23:39 43.95325 61.75758 35038 ft 482 kts 165°
2026-04-25 23:39 43.89236 61.79742 35056 ft 484 kts 165°
2026-04-25 23:40 43.83141 61.83724 35063 ft 484 kts 165°
2026-04-25 23:40 43.77082 61.87674 35039 ft 484 kts 165°
2026-04-25 23:41 43.70969 61.91648 35053 ft 486 kts 165°
2026-04-25 23:41 43.64852 61.95617 35052 ft 486 kts 165°
2026-04-25 23:42 43.58719 61.99589 35045 ft 486 kts 165°
2026-04-25 23:42 43.52597 62.03544 35046 ft 485 kts 165°
2026-04-25 23:43 43.46531 62.07555 35054 ft 490 kts 160°
2026-04-25 23:43 43.40708 62.12631 35047 ft 499 kts 155°
2026-04-25 23:44 43.34956 62.18010 35043 ft 500 kts 155°
2026-04-25 23:44 43.29209 62.23437 35040 ft 501 kts 155°
2026-04-25 23:45 43.23462 62.28827 35032 ft 500 kts 155°
2026-04-25 23:45 43.17719 62.34180 35035 ft 499 kts 155°
2026-04-25 23:46 43.12944 62.38614 35031 ft 499 kts 155°
2026-04-25 23:46 43.07200 62.43936 35024 ft 497 kts 155°
2026-04-25 23:47 43.01478 62.49230 35020 ft 496 kts 155°
2026-04-25 23:47 42.95742 62.54522 35014 ft 496 kts 155°
2026-04-25 23:48 42.90023 62.59786 35009 ft 496 kts 154°
2026-04-25 23:48 42.84334 62.65011 35005 ft 496 kts 154°
2026-04-25 23:49 42.78599 62.70267 34970 ft 496 kts 154°
2026-04-25 23:49 42.72857 62.75516 35002 ft 497 kts 154°
2026-04-25 23:50 42.67119 62.80751 34999 ft 498 kts 154°
2026-04-25 23:50 42.61356 62.85999 34992 ft 497 kts 154°
2026-04-25 23:51 42.55602 62.91226 34997 ft 497 kts 154°
2026-04-25 23:51 42.49887 62.96405 34989 ft 497 kts 154°
2026-04-25 23:52 42.44125 63.01615 34989 ft 496 kts 154°
2026-04-25 23:52 42.38391 63.06792 34992 ft 495 kts 154°
2026-04-25 23:53 42.32656 63.11954 34994 ft 495 kts 155°
2026-04-25 23:53 42.26956 63.17071 34986 ft 493 kts 155°
2026-04-25 23:54 42.21248 63.22185 34991 ft 492 kts 155°
2026-04-25 23:54 42.15534 63.27292 34992 ft 492 kts 155°
2026-04-25 23:55 42.09835 63.32375 34993 ft 490 kts 154°
2026-04-25 23:55 42.04158 63.37429 34990 ft 490 kts 155°
2026-04-25 23:56 41.98473 63.42478 34994 ft 490 kts 155°
2026-04-25 23:56 41.92774 63.47528 34990 ft 490 kts 155°
2026-04-25 23:57 41.87087 63.52557 34991 ft 490 kts 155°
2026-04-25 23:57 41.81424 63.57555 34983 ft 489 kts 155°
2026-04-25 23:58 41.75731 63.62570 34989 ft 488 kts 155°
2026-04-25 23:58 41.70042 63.67568 34990 ft 488 kts 155°
2026-04-25 23:59 41.64372 63.72538 34991 ft 487 kts 154°
2026-04-25 23:59 41.58706 63.77497 34988 ft 487 kts 155°
2026-04-26 00:00 41.53072 63.82415 34988 ft 487 kts 155°
2026-04-26 00:00 41.47396 63.87360 34985 ft 486 kts 154°
2026-04-26 00:01 41.41726 63.92289 34987 ft 486 kts 154°
2026-04-26 00:01 41.36046 63.97225 34971 ft 487 kts 154°
2026-04-26 00:02 41.30366 64.02147 34979 ft 487 kts 154°
2026-04-26 00:02 41.24719 64.07027 34974 ft 487 kts 154°
2026-04-26 00:03 41.19024 64.11939 34966 ft 488 kts 154°
2026-04-26 00:03 41.13314 64.16857 34972 ft 489 kts 154°
2026-04-26 00:04 41.07609 64.21762 34972 ft 489 kts 154°
2026-04-26 00:04 41.01893 64.26665 34961 ft 488 kts 154°
2026-04-26 00:05 40.96193 64.31544 34962 ft 488 kts 154°
2026-04-26 00:05 40.90520 64.36389 34952 ft 488 kts 154°
2026-04-26 00:06 40.84807 64.41257 34959 ft 489 kts 154°
2026-04-26 00:06 40.79083 64.46125 34963 ft 489 kts 154°
2026-04-26 00:07 40.73351 64.50990 34956 ft 489 kts 154°
2026-04-26 00:07 40.67615 64.55849 34960 ft 491 kts 154°
2026-04-26 00:08 40.61849 64.60722 34965 ft 491 kts 154°
2026-04-26 00:08 40.56134 64.65543 34947 ft 491 kts 154°
2026-04-26 00:09 40.50372 64.70393 34951 ft 491 kts 154°
2026-04-26 00:09 40.44606 64.75237 34953 ft 492 kts 154°
2026-04-26 00:10 40.38836 64.80074 34957 ft 492 kts 154°
2026-04-26 00:10 40.33071 64.84898 34958 ft 492 kts 154°
2026-04-26 00:11 40.27309 64.89708 34961 ft 491 kts 154°
2026-04-26 00:11 40.21574 64.94487 34945 ft 491 kts 154°
2026-04-26 00:12 40.15784 64.99298 34963 ft 494 kts 154°
2026-04-26 00:12 40.09971 65.04121 34966 ft 495 kts 154°
2026-04-26 00:13 40.04143 65.08949 34949 ft 495 kts 154°
2026-04-26 00:13 39.98315 65.13765 34962 ft 497 kts 154°
2026-04-26 00:14 39.92504 65.18557 34962 ft 497 kts 154°
2026-04-26 00:14 39.86644 65.23380 34942 ft 497 kts 155°
2026-04-26 00:15 39.80784 65.28193 34967 ft 498 kts 155°
2026-04-26 00:15 39.74915 65.33003 34975 ft 499 kts 155°
2026-04-26 00:16 39.69077 65.37778 34966 ft 499 kts 155°
2026-04-26 00:16 39.63182 65.42591 34972 ft 499 kts 155°
2026-04-26 00:17 39.57303 65.47380 34975 ft 499 kts 155°
2026-04-26 00:17 39.51417 65.52166 34964 ft 499 kts 155°
2026-04-26 00:18 39.45518 65.56951 34971 ft 500 kts 155°
2026-04-26 00:18 39.39661 65.61693 34969 ft 500 kts 155°
2026-04-26 00:19 39.33752 65.66467 34966 ft 501 kts 155°
2026-04-26 00:19 39.27825 65.71246 34971 ft 503 kts 155°
2026-04-26 00:20 39.21891 65.76022 34968 ft 503 kts 155°
2026-04-26 00:20 39.15943 65.80801 34958 ft 503 kts 155°
2026-04-26 00:21 39.10014 65.85552 34966 ft 504 kts 155°
2026-04-26 00:21 39.04058 65.90317 34969 ft 504 kts 155°
2026-04-26 00:22 38.98087 65.95084 34955 ft 504 kts 155°
2026-04-26 00:22 38.92101 65.99851 34970 ft 506 kts 155°
2026-04-26 00:23 38.86113 66.04614 34971 ft 506 kts 155°
2026-04-26 00:23 38.80121 66.09370 34965 ft 506 kts 155°
2026-04-26 00:24 38.74116 66.14124 34982 ft 507 kts 155°
2026-04-26 00:24 38.68114 66.18868 34987 ft 508 kts 155°
2026-04-26 00:25 38.62142 66.23581 35177 ft 506 kts 155°
2026-04-26 00:25 38.59161 66.25945 35499 ft 503 kts 155°
2026-04-26 00:25 38.56193 66.28328 35676 ft 504 kts 155°
2026-04-26 00:25 38.53232 66.30719 35860 ft 504 kts 155°
2026-04-26 00:26 38.50268 66.33115 36044 ft 503 kts 155°
2026-04-26 00:26 38.47308 66.35504 36236 ft 503 kts 155°
2026-04-26 00:26 38.44347 66.37888 36393 ft 503 kts 155°
2026-04-26 00:26 38.41383 66.40268 36518 ft 504 kts 155°
2026-04-26 00:27 38.38408 66.42653 36688 ft 503 kts 156°
2026-04-26 00:27 38.35442 66.45026 36856 ft 503 kts 156°
2026-04-26 00:27 38.32476 66.47397 36992 ft 503 kts 156°
2026-04-26 00:28 38.26546 66.52125 37039 ft 509 kts 156°
2026-04-26 00:28 38.20535 66.56913 37061 ft 509 kts 156°
2026-04-26 00:29 38.14522 66.61695 37058 ft 511 kts 155°
2026-04-26 00:29 38.08484 66.66489 37084 ft 512 kts 155°
2026-04-26 00:30 38.02439 66.71279 37078 ft 512 kts 156°
2026-04-26 00:30 37.96425 66.76014 37070 ft 511 kts 156°
2026-04-26 00:31 37.90349 66.80736 37076 ft 511 kts 156°
2026-04-26 00:31 37.84267 66.85451 37055 ft 514 kts 156°
2026-04-26 00:32 37.78165 66.90198 37060 ft 514 kts 156°
2026-04-26 00:32 37.69036 66.97284 37017 ft 516 kts 156°
2026-04-26 00:33 37.62897 67.02034 37026 ft 517 kts 156°
2026-04-26 00:33 37.56750 67.06780 37008 ft 517 kts 156°
2026-04-26 00:34 37.50644 67.11485 36974 ft 517 kts 156°
2026-04-26 00:34 37.44485 67.16219 36995 ft 519 kts 156°
2026-04-26 00:35 37.38321 67.20950 36995 ft 519 kts 156°
2026-04-26 00:35 37.32145 67.25681 36976 ft 521 kts 156°
2026-04-26 00:36 37.26993 67.29619 36988 ft 522 kts 156°
2026-04-26 00:36 37.20782 67.34361 36984 ft 522 kts 156°
2026-04-26 00:37 37.14512 67.38902 36982 ft 519 kts 159°
2026-04-26 00:37 37.08167 67.43219 36985 ft 518 kts 159°
2026-04-26 00:38 37.01842 67.47532 36985 ft 518 kts 158°
2026-04-26 00:38 36.95534 67.51876 36990 ft 518 kts 158°
2026-04-26 00:39 36.89265 67.56206 36996 ft 518 kts 158°
2026-04-26 00:39 36.82947 67.60565 37007 ft 519 kts 158°
2026-04-26 00:40 36.76608 67.64929 37023 ft 519 kts 158°
2026-04-26 00:40 36.70281 67.69278 37020 ft 519 kts 158°
2026-04-26 00:41 36.64004 67.73603 37037 ft 519 kts 158°
2026-04-26 00:41 36.57688 67.77955 37033 ft 519 kts 158°
2026-04-26 00:42 36.51371 67.82294 37036 ft 518 kts 157°
2026-04-26 00:42 36.45052 67.86625 37046 ft 518 kts 158°
2026-04-26 00:43 36.38730 67.90954 37061 ft 518 kts 157°
2026-04-26 00:43 36.32449 67.95242 37043 ft 518 kts 157°
2026-04-26 00:44 36.26143 67.99541 37078 ft 517 kts 157°
2026-04-26 00:44 36.19831 68.03835 37095 ft 517 kts 157°
2026-04-26 00:45 36.13519 68.08123 37093 ft 517 kts 157°
2026-04-26 00:45 36.07205 68.12408 37107 ft 516 kts 157°
2026-04-26 00:46 36.00914 68.16663 37119 ft 516 kts 157°
2026-04-26 00:46 35.94657 68.20887 37115 ft 516 kts 157°
2026-04-26 00:47 35.88326 68.25153 37118 ft 517 kts 157°
2026-04-26 00:47 35.82023 68.29397 37133 ft 516 kts 157°
2026-04-26 00:48 35.75709 68.33639 37126 ft 517 kts 157°
2026-04-26 00:48 35.69408 68.37866 37128 ft 514 kts 157°
2026-04-26 00:49 35.63132 68.42067 37137 ft 512 kts 157°
2026-04-26 00:49 35.56915 68.46219 37149 ft 511 kts 157°
2026-04-26 00:50 35.50638 68.50377 37170 ft 511 kts 157°
2026-04-26 00:50 35.44359 68.54515 37184 ft 512 kts 157°
2026-04-26 00:51 35.38118 68.58636 37183 ft 513 kts 157°
2026-04-26 00:51 35.31820 68.62789 37193 ft 513 kts 157°
2026-04-26 00:52 35.25513 68.66936 37201 ft 514 kts 157°
2026-04-26 00:52 35.19229 68.71070 37206 ft 511 kts 157°
2026-04-26 00:53 35.13014 68.75146 37196 ft 510 kts 157°
2026-04-26 00:53 35.06754 68.79241 37176 ft 510 kts 157°
2026-04-26 00:54 35.00490 68.83331 37182 ft 510 kts 157°
2026-04-26 00:54 34.94214 68.87425 37141 ft 511 kts 157°
2026-04-26 00:55 34.87965 68.91493 37139 ft 513 kts 157°
2026-04-26 00:55 34.81668 68.95586 37123 ft 513 kts 158°
2026-04-26 00:56 34.75359 68.99664 37101 ft 514 kts 158°
2026-04-26 00:56 34.69033 69.03757 37105 ft 513 kts 157°
2026-04-26 00:57 34.62737 69.07842 37105 ft 512 kts 157°
2026-04-26 00:57 34.56516 69.11973 37103 ft 515 kts 152°
2026-04-26 00:58 34.51051 69.17723 37088 ft 528 kts 133°
2026-04-26 00:58 34.47151 69.25326 37088 ft 535 kts 121°
2026-04-26 00:59 34.43754 69.33371 37082 ft 536 kts 119°
2026-04-26 00:59 34.40414 69.41437 37072 ft 535 kts 119°
2026-04-26 01:00 34.37034 69.49463 37087 ft 535 kts 120°
2026-04-26 01:00 34.33613 69.57486 37069 ft 536 kts 120°
2026-04-26 01:01 34.30193 69.65457 37081 ft 537 kts 120°
2026-04-26 01:01 34.26746 69.73492 37064 ft 537 kts 119°
2026-04-26 01:02 34.23294 69.81520 37053 ft 538 kts 119°
2026-04-26 01:02 34.19838 69.89539 37054 ft 538 kts 119°
2026-04-26 01:03 34.16390 69.97522 37040 ft 538 kts 119°
2026-04-26 01:03 34.12907 70.05513 37043 ft 538 kts 119°
2026-04-26 01:04 34.09401 70.13485 37027 ft 537 kts 120°
2026-04-26 01:04 34.05899 70.21442 37030 ft 536 kts 119°
2026-04-26 01:05 34.02397 70.29389 37028 ft 538 kts 119°
2026-04-26 01:05 33.98873 70.37360 37018 ft 538 kts 120°
2026-04-26 01:06 33.94424 70.44434 37020 ft 530 kts 140°
2026-04-26 01:06 33.91557 70.47189 37023 ft 524 kts 151°
2026-04-26 01:06 33.88361 70.49262 36998 ft 516 kts 162°
2026-04-26 01:07 33.84977 70.50585 37004 ft 508 kts 173°
2026-04-26 01:07 33.81502 70.51237 37009 ft 503 kts 179°
2026-04-26 01:07 33.74538 70.51966 37000 ft 502 kts 181°
2026-04-26 01:08 33.67609 70.52541 37002 ft 502 kts 181°
2026-04-26 01:08 33.60641 70.53162 36988 ft 501 kts 181°
2026-04-26 01:09 33.53678 70.53827 36970 ft 501 kts 181°
2026-04-26 01:09 33.46712 70.54506 36951 ft 503 kts 180°
2026-04-26 01:10 33.39710 70.55186 36949 ft 504 kts 180°
2026-04-26 01:10 33.32719 70.55863 36944 ft 504 kts 180°
2026-04-26 01:11 33.25723 70.56539 36907 ft 504 kts 180°
2026-04-26 01:11 33.18774 70.57209 36921 ft 504 kts 180°
2026-04-26 01:12 33.11782 70.57882 36900 ft 503 kts 180°
2026-04-26 01:12 33.04806 70.58552 36885 ft 503 kts 180°
2026-04-26 01:13 32.97838 70.58936 36885 ft 497 kts 189°
2026-04-26 01:13 32.94446 70.58406 37055 ft 488 kts 198°
2026-04-26 01:13 32.91221 70.57278 37275 ft 478 kts 207°
2026-04-26 01:14 32.88247 70.55588 37460 ft 470 kts 215°
2026-04-26 01:14 32.85446 70.53601 37596 ft 468 kts 217°
2026-04-26 01:14 32.82710 70.51532 37829 ft 465 kts 218°
2026-04-26 01:14 32.79994 70.49424 37872 ft 466 kts 218°
2026-04-26 01:15 32.74592 70.45212 37881 ft 468 kts 218°
2026-04-26 01:15 32.69126 70.41005 37880 ft 468 kts 218°
2026-04-26 01:16 32.63651 70.36830 37854 ft 468 kts 217°
2026-04-26 01:16 32.58064 70.32807 37897 ft 471 kts 214°
2026-04-26 01:17 32.52380 70.28925 37894 ft 472 kts 214°
2026-04-26 01:17 32.46693 70.25027 37888 ft 471 kts 215°
2026-04-26 01:18 32.41024 70.21106 37886 ft 471 kts 215°
2026-04-26 01:18 32.35401 70.17204 37898 ft 470 kts 215°
2026-04-26 01:19 32.29817 70.13193 37900 ft 469 kts 216°
2026-04-26 01:19 32.24259 70.09144 37891 ft 469 kts 216°
2026-04-26 01:20 32.18696 70.05117 37912 ft 468 kts 216°
2026-04-26 01:20 32.13130 70.01114 37918 ft 469 kts 216°
2026-04-26 01:21 32.07551 69.97111 37915 ft 469 kts 216°
2026-04-26 01:21 32.02007 69.93139 37912 ft 469 kts 215°
2026-04-26 01:22 31.96430 69.89151 37936 ft 469 kts 215°
2026-04-26 01:22 31.90854 69.85167 37942 ft 469 kts 215°
2026-04-26 01:23 31.85288 69.81198 37936 ft 467 kts 215°
2026-04-26 01:23 31.79725 69.77235 37964 ft 466 kts 215°
2026-04-26 01:24 31.74211 69.73311 37961 ft 466 kts 215°
2026-04-26 01:24 31.68663 69.69369 37978 ft 466 kts 215°
2026-04-26 01:25 31.63118 69.65437 37984 ft 466 kts 215°
2026-04-26 01:25 31.57563 69.61502 37989 ft 466 kts 215°
2026-04-26 01:26 31.52957 69.58243 37986 ft 466 kts 215°
2026-04-26 01:26 31.47413 69.54326 37987 ft 465 kts 215°
2026-04-26 01:27 31.41872 69.50415 38000 ft 465 kts 214°
2026-04-26 01:27 31.36428 69.46345 37997 ft 462 kts 221°
2026-04-26 01:28 31.31800 69.41203 38000 ft 458 kts 229°
2026-04-26 01:28 31.27471 69.35731 38010 ft 458 kts 230°
2026-04-26 01:29 31.23191 69.30223 38008 ft 458 kts 230°
2026-04-26 01:29 31.18887 69.24718 38014 ft 458 kts 230°
2026-04-26 01:30 31.14602 69.19272 38010 ft 458 kts 230°
2026-04-26 01:30 31.10278 69.13793 38021 ft 459 kts 230°
2026-04-26 01:31 31.05945 69.08310 38018 ft 459 kts 230°
2026-04-26 01:31 31.01605 69.02827 38021 ft 459 kts 229°
2026-04-26 01:32 30.97265 68.97351 38027 ft 459 kts 230°
2026-04-26 01:32 30.92921 68.91876 38021 ft 460 kts 229°
2026-04-26 01:33 30.88606 68.86446 38023 ft 460 kts 229°
2026-04-26 01:33 30.84262 68.80988 38027 ft 459 kts 230°
2026-04-26 01:34 30.79911 68.75529 38013 ft 460 kts 229°
2026-04-26 01:34 30.75561 68.70079 38018 ft 460 kts 229°
2026-04-26 01:35 30.71201 68.64624 38018 ft 460 kts 229°
2026-04-26 01:35 30.66839 68.59174 38015 ft 460 kts 229°
2026-04-26 01:36 30.62467 68.53720 38014 ft 460 kts 229°
2026-04-26 01:37 30.55949 68.45602 38021 ft 460 kts 229°
2026-04-26 01:37 30.51579 68.40171 38016 ft 459 kts 229°
2026-04-26 01:38 30.47215 68.34753 38004 ft 460 kts 229°
2026-04-26 01:38 30.42834 68.29321 38021 ft 461 kts 229°
2026-04-26 01:39 30.38452 68.23897 38002 ft 461 kts 229°
2026-04-26 01:39 30.34063 68.18471 38001 ft 461 kts 229°
2026-04-26 01:40 30.29695 68.13079 38001 ft 461 kts 229°
2026-04-26 01:40 30.25301 68.07663 37973 ft 461 kts 229°
2026-04-26 01:41 30.20911 68.02255 37971 ft 461 kts 229°
2026-04-26 01:41 30.16545 67.96885 37971 ft 461 kts 229°
2026-04-26 01:42 30.12151 67.91491 37928 ft 462 kts 229°
2026-04-26 01:42 30.07744 67.86089 37933 ft 462 kts 229°
2026-04-26 01:43 30.03351 67.80663 37926 ft 462 kts 230°
2026-04-26 01:43 29.98979 67.75234 37883 ft 462 kts 230°
2026-04-26 01:44 29.94588 67.69801 37886 ft 462 kts 229°
2026-04-26 01:44 29.90229 67.64421 37891 ft 462 kts 229°
2026-04-26 01:45 29.85839 67.59013 37867 ft 462 kts 229°
2026-04-26 01:45 29.81450 67.53613 37889 ft 462 kts 229°
2026-04-26 01:46 29.77043 67.48200 37906 ft 463 kts 229°
2026-04-26 01:46 29.72631 67.42789 37868 ft 463 kts 229°
2026-04-26 01:47 29.68227 67.37373 37906 ft 464 kts 229°
2026-04-26 01:47 29.63824 67.31953 37901 ft 464 kts 230°
2026-04-26 01:48 29.59413 67.26533 37959 ft 463 kts 229°
2026-04-26 01:48 29.54993 67.21114 37939 ft 464 kts 229°
2026-04-26 01:49 29.50581 67.15713 37936 ft 464 kts 229°
2026-04-26 01:49 29.46199 67.10358 37985 ft 463 kts 229°
2026-04-26 01:50 29.41774 67.04955 37987 ft 464 kts 229°
2026-04-26 01:50 29.37349 66.99560 38014 ft 465 kts 229°
2026-04-26 01:51 29.32919 66.94166 38020 ft 465 kts 229°
2026-04-26 01:51 29.28478 66.88766 38026 ft 464 kts 229°
2026-04-26 01:52 29.24041 66.83379 38031 ft 465 kts 229°
2026-04-26 01:52 29.19601 66.77996 38032 ft 465 kts 229°
2026-04-26 01:53 29.15157 66.72615 38039 ft 465 kts 229°
2026-04-26 01:53 29.10712 66.67239 38040 ft 465 kts 229°
2026-04-26 01:54 29.06265 66.61867 38047 ft 465 kts 229°
2026-04-26 01:54 29.01816 66.56502 38048 ft 465 kts 229°
2026-04-26 01:55 28.97415 66.51178 38045 ft 463 kts 229°
2026-04-26 01:55 28.92982 66.45812 38038 ft 463 kts 229°
2026-04-26 01:56 28.88556 66.40465 38040 ft 463 kts 229°
2026-04-26 01:56 28.84151 66.35152 38029 ft 463 kts 229°
2026-04-26 01:57 28.79717 66.29814 38029 ft 463 kts 229°
2026-04-26 01:57 28.75276 66.24474 38020 ft 465 kts 229°
2026-04-26 01:58 28.70819 66.19121 38018 ft 465 kts 229°
2026-04-26 01:58 28.66393 66.13814 38017 ft 465 kts 229°
2026-04-26 01:59 28.61935 66.08475 38001 ft 465 kts 229°
2026-04-26 01:59 28.57472 66.03137 37999 ft 465 kts 229°
2026-04-26 02:00 28.53014 65.97812 37978 ft 464 kts 229°
2026-04-26 02:00 28.48552 65.92489 37986 ft 464 kts 229°
2026-04-26 02:01 28.44111 65.87197 37977 ft 462 kts 229°
2026-04-26 02:01 28.39668 65.81912 37954 ft 463 kts 229°
2026-04-26 02:02 28.35240 65.76650 37956 ft 463 kts 229°
2026-04-26 02:02 28.30781 65.71356 37933 ft 463 kts 229°
2026-04-26 02:03 28.26319 65.66068 37932 ft 463 kts 229°
2026-04-26 02:03 28.21860 65.60790 37921 ft 463 kts 229°
2026-04-26 02:04 28.17432 65.55556 37919 ft 462 kts 229°
2026-04-26 02:04 28.12982 65.50302 37918 ft 462 kts 229°
2026-04-26 02:05 28.08532 65.45055 37900 ft 462 kts 229°
2026-04-26 02:05 28.04074 65.39806 37919 ft 463 kts 229°
2026-04-26 02:06 27.99602 65.34544 37900 ft 463 kts 229°
2026-04-26 02:06 27.95123 65.29282 37882 ft 463 kts 228°
2026-04-26 02:07 27.90670 65.24058 37915 ft 464 kts 228°
2026-04-26 02:07 27.86185 65.18803 37897 ft 464 kts 228°
2026-04-26 02:08 27.81698 65.13553 37897 ft 464 kts 228°
2026-04-26 02:08 27.77209 65.08307 37908 ft 464 kts 228°
2026-04-26 02:09 27.72721 65.03068 37906 ft 464 kts 228°
2026-04-26 02:09 27.68219 64.97821 37898 ft 466 kts 228°
2026-04-26 02:10 27.63697 64.92556 37921 ft 467 kts 228°
2026-04-26 02:10 27.59194 64.87320 37921 ft 467 kts 228°
2026-04-26 02:11 27.54668 64.82064 37923 ft 467 kts 228°
2026-04-26 02:11 27.50139 64.76811 37941 ft 467 kts 228°
2026-04-26 02:12 27.45602 64.71555 37932 ft 467 kts 228°
2026-04-26 02:12 27.41066 64.66308 37933 ft 467 kts 228°
2026-04-26 02:13 27.36516 64.61050 37951 ft 468 kts 228°
2026-04-26 02:13 27.31988 64.55823 37947 ft 469 kts 228°
2026-04-26 02:14 27.27428 64.50568 37946 ft 469 kts 228°
2026-04-26 02:14 27.23639 64.46205 37947 ft 469 kts 228°
2026-04-26 02:15 27.19079 64.40962 37949 ft 469 kts 228°
2026-04-26 02:15 27.14511 64.35715 37933 ft 469 kts 228°
2026-04-26 02:16 27.09975 64.30512 37949 ft 469 kts 228°
2026-04-26 02:16 27.05403 64.25273 37949 ft 469 kts 228°
2026-04-26 02:17 27.00835 64.20046 37939 ft 470 kts 228°
2026-04-26 02:17 26.96249 64.14803 37941 ft 471 kts 228°
2026-04-26 02:18 26.91649 64.09573 37939 ft 471 kts 227°
2026-04-26 02:18 26.87032 64.04365 37938 ft 471 kts 227°
2026-04-26 02:19 26.82413 63.99162 37936 ft 471 kts 227°
2026-04-26 02:19 26.77795 63.93960 37934 ft 471 kts 227°
2026-04-26 02:20 26.73196 63.88783 37936 ft 471 kts 227°
2026-04-26 02:20 26.68580 63.83593 37927 ft 471 kts 227°
2026-04-26 02:21 26.63960 63.78405 37920 ft 472 kts 227°
2026-04-26 02:21 26.59319 63.73201 37914 ft 472 kts 227°
2026-04-26 02:22 26.54675 63.67999 37917 ft 472 kts 227°
2026-04-26 02:22 26.50029 63.62802 37912 ft 472 kts 227°
2026-04-26 02:23 26.45383 63.57611 37908 ft 472 kts 227°
2026-04-26 02:23 26.40768 63.52460 37908 ft 472 kts 227°
2026-04-26 02:24 26.36121 63.47281 37896 ft 472 kts 227°
2026-04-26 02:24 26.31474 63.42107 37890 ft 473 kts 227°
2026-04-26 02:25 26.26809 63.36918 37893 ft 474 kts 227°
2026-04-26 02:25 26.22132 63.31723 37884 ft 475 kts 227°
2026-04-26 02:26 26.17445 63.26524 37883 ft 475 kts 227°
2026-04-26 02:26 26.12764 63.21338 37875 ft 475 kts 227°
2026-04-26 02:27 26.08082 63.16157 37871 ft 475 kts 227°
2026-04-26 02:27 26.03395 63.10976 37863 ft 475 kts 227°
2026-04-26 02:28 25.98723 63.05818 37864 ft 476 kts 227°
2026-04-26 02:28 25.94030 63.00624 37867 ft 477 kts 227°
2026-04-26 02:29 25.89322 62.95409 37851 ft 478 kts 227°
2026-04-26 02:29 25.84609 62.90199 37851 ft 478 kts 227°
2026-04-26 02:30 25.79893 62.84995 37864 ft 478 kts 227°
2026-04-26 02:30 25.75176 62.79797 37844 ft 478 kts 227°
2026-04-26 02:31 25.70473 62.74619 37844 ft 479 kts 227°
2026-04-26 02:31 25.65737 62.69411 37846 ft 479 kts 227°
2026-04-26 02:32 25.61002 62.64211 37866 ft 479 kts 227°
2026-04-26 02:32 25.56265 62.59015 37844 ft 479 kts 227°
2026-04-26 02:33 25.51522 62.53818 37864 ft 479 kts 227°
2026-04-26 02:33 25.46781 62.48630 37834 ft 480 kts 228°
2026-04-26 02:34 25.42034 62.43439 37836 ft 480 kts 228°
2026-04-26 02:34 25.37280 62.38249 37857 ft 480 kts 228°
2026-04-26 02:35 25.32525 62.33063 37857 ft 480 kts 228°
2026-04-26 02:35 25.27766 62.27880 37829 ft 480 kts 228°
2026-04-26 02:36 25.23001 62.22695 37840 ft 482 kts 228°
2026-04-26 02:36 25.18216 62.17495 37841 ft 483 kts 228°
2026-04-26 02:37 25.13428 62.12298 37840 ft 483 kts 228°
2026-04-26 02:37 25.08638 62.07105 37838 ft 483 kts 228°
2026-04-26 02:38 25.03872 62.01943 37838 ft 483 kts 228°
2026-04-26 02:38 24.99073 61.96753 37838 ft 483 kts 228°
2026-04-26 02:39 24.94276 61.91569 37832 ft 483 kts 229°
2026-04-26 02:39 24.89459 61.86371 37833 ft 485 kts 229°
2026-04-26 02:40 24.84627 61.81160 37836 ft 486 kts 229°
2026-04-26 02:40 24.79819 61.75984 37834 ft 487 kts 229°
2026-04-26 02:41 24.74976 61.70777 37838 ft 486 kts 229°
2026-04-26 02:41 24.70131 61.65572 37838 ft 487 kts 229°
2026-04-26 02:42 24.65287 61.60374 37836 ft 487 kts 229°
2026-04-26 02:42 24.60436 61.55175 37839 ft 487 kts 229°
2026-04-26 02:43 24.53156 61.47382 37832 ft 488 kts 228°
2026-04-26 02:43 24.48283 61.42173 37837 ft 489 kts 228°
2026-04-26 02:44 24.43415 61.36944 37837 ft 488 kts 230°
2026-04-26 02:44 24.39488 61.30988 37844 ft 478 kts 247°
2026-04-26 02:45 24.37001 61.24311 37843 ft 474 kts 254°
2026-04-26 02:45 24.34804 61.17480 37843 ft 474 kts 255°
2026-04-26 02:46 24.32636 61.10646 37840 ft 474 kts 255°
2026-04-26 02:46 24.30438 61.03819 37833 ft 475 kts 255°
2026-04-26 02:47 24.28217 60.96992 37840 ft 475 kts 255°
2026-04-26 02:47 24.25991 60.90171 37840 ft 475 kts 255°
2026-04-26 02:48 24.23760 60.83347 37840 ft 475 kts 255°
2026-04-26 02:48 24.21542 60.76570 37840 ft 475 kts 255°
2026-04-26 02:49 24.19302 60.69750 37839 ft 475 kts 255°
2026-04-26 02:49 24.17063 60.62928 37839 ft 475 kts 255°
2026-04-26 02:50 24.14826 60.56120 37840 ft 475 kts 255°
2026-04-26 02:50 24.12579 60.49299 37849 ft 475 kts 255°
2026-04-26 02:51 24.10346 60.42537 37849 ft 475 kts 255°
2026-04-26 02:51 24.08098 60.35738 37848 ft 473 kts 255°
2026-04-26 02:52 24.05853 60.28960 37848 ft 473 kts 255°
2026-04-26 02:52 24.03619 60.22225 37848 ft 474 kts 255°
2026-04-26 02:53 24.01369 60.15454 37848 ft 473 kts 255°
2026-04-26 02:53 23.99120 60.08700 37848 ft 472 kts 255°
2026-04-26 02:54 23.96870 60.01949 37844 ft 472 kts 255°
2026-04-26 02:54 23.94614 59.95190 37848 ft 473 kts 255°
2026-04-26 02:55 23.92368 59.88476 37846 ft 473 kts 255°
2026-04-26 02:55 23.90106 59.81727 37852 ft 473 kts 255°
2026-04-26 02:56 23.87835 59.74963 37855 ft 473 kts 255°
2026-04-26 02:56 23.85564 59.68207 37851 ft 473 kts 255°
2026-04-26 02:57 23.83296 59.61471 37856 ft 473 kts 255°
2026-04-26 02:57 23.81022 59.54733 37851 ft 472 kts 255°
2026-04-26 02:58 23.78752 59.48042 37853 ft 473 kts 254°
2026-04-26 02:58 23.76348 59.41344 37857 ft 473 kts 253°
2026-04-26 02:59 23.73909 59.34668 37861 ft 473 kts 253°
2026-04-26 02:59 23.71482 59.27989 37856 ft 472 kts 253°
2026-04-26 03:00 23.69074 59.21335 37854 ft 470 kts 254°
2026-04-26 03:00 23.66686 59.14733 37851 ft 470 kts 254°
2026-04-26 03:01 23.64282 59.08097 37852 ft 470 kts 253°
2026-04-26 03:01 23.61874 59.01461 37849 ft 470 kts 254°
2026-04-26 03:02 23.59465 58.94840 37847 ft 469 kts 254°
2026-04-26 03:02 23.57463 58.89342 37847 ft 468 kts 254°
2026-04-26 03:03 23.55059 58.82748 37854 ft 468 kts 254°
2026-04-26 03:03 23.52649 58.76148 37846 ft 468 kts 254°
2026-04-26 03:04 23.50237 58.69552 37859 ft 468 kts 253°
2026-04-26 03:04 23.47835 58.62995 37852 ft 468 kts 253°
2026-04-26 03:05 23.45418 58.56410 37854 ft 469 kts 253°
2026-04-26 03:05 23.42995 58.49822 37843 ft 468 kts 253°
2026-04-26 03:06 23.40573 58.43237 37847 ft 468 kts 254°
2026-04-26 03:06 23.38102 58.36668 37852 ft 468 kts 253°
2026-04-26 03:07 23.35592 58.30127 37860 ft 468 kts 253°
2026-04-26 03:07 23.33097 58.23623 37872 ft 468 kts 253°
2026-04-26 03:08 23.30587 58.17067 37888 ft 468 kts 253°
2026-04-26 03:08 23.28077 58.10507 37891 ft 469 kts 253°
2026-04-26 03:09 23.25158 58.04121 37906 ft 479 kts 242°
2026-04-26 03:09 23.20620 57.98737 37935 ft 497 kts 224°
2026-04-26 03:10 23.14906 57.94423 37917 ft 502 kts 219°
2026-04-26 03:10 23.09015 57.90321 37956 ft 503 kts 219°
2026-04-26 03:11 23.03111 57.86213 37957 ft 503 kts 219°
2026-04-26 03:11 22.97237 57.82093 37964 ft 503 kts 219°
2026-04-26 03:12 22.91371 57.77966 37962 ft 503 kts 219°
2026-04-26 03:12 22.85167 57.74280 37963 ft 511 kts 213°
2026-04-26 03:13 22.78813 57.70941 37960 ft 512 kts 212°
2026-04-26 03:13 22.72320 57.67600 37955 ft 512 kts 212°
2026-04-26 03:14 22.65930 57.64311 37952 ft 512 kts 212°
2026-04-26 03:14 22.59493 57.60988 37950 ft 512 kts 212°
2026-04-26 03:15 22.53038 57.57653 37954 ft 514 kts 212°
2026-04-26 03:15 22.46580 57.54321 37986 ft 514 kts 212°
2026-04-26 03:16 22.40120 57.50993 37984 ft 514 kts 212°
2026-04-26 03:16 22.33699 57.47689 37981 ft 514 kts 212°
2026-04-26 03:17 22.27230 57.44367 37970 ft 516 kts 212°
2026-04-26 03:17 22.20733 57.41022 37960 ft 517 kts 212°
2026-04-26 03:18 22.14219 57.37675 37945 ft 518 kts 212°
2026-04-26 03:18 22.07701 57.34331 37943 ft 518 kts 212°
2026-04-26 03:19 22.01220 57.31010 37940 ft 519 kts 212°
2026-04-26 03:19 21.94692 57.27668 37938 ft 520 kts 211°
2026-04-26 03:20 21.88149 57.24322 37937 ft 520 kts 211°
2026-04-26 03:20 21.81606 57.20980 37934 ft 520 kts 211°
2026-04-26 03:21 21.75063 57.17641 37933 ft 520 kts 211°
2026-04-26 03:21 21.68513 57.14305 37930 ft 520 kts 211°
2026-04-26 03:22 21.61965 57.10980 37927 ft 520 kts 211°
2026-04-26 03:22 21.55454 57.07673 37930 ft 520 kts 211°
2026-04-26 03:23 21.48906 57.04340 37930 ft 520 kts 211°
2026-04-26 03:23 21.42363 57.01013 37930 ft 520 kts 211°
2026-04-26 03:24 21.35811 56.97686 37924 ft 520 kts 211°
2026-04-26 03:24 21.29252 56.94360 37932 ft 522 kts 211°
2026-04-26 03:25 21.22676 56.91036 37933 ft 522 kts 211°
2026-04-26 03:25 21.16108 56.87714 37935 ft 522 kts 211°
2026-04-26 03:26 21.09533 56.84391 37935 ft 522 kts 211°
2026-04-26 03:26 21.03010 56.81098 37934 ft 522 kts 211°
2026-04-26 03:27 20.96427 56.77778 37936 ft 523 kts 211°
2026-04-26 03:27 20.89834 56.74458 37935 ft 523 kts 211°
2026-04-26 03:28 20.83240 56.71150 37938 ft 523 kts 210°
2026-04-26 03:28 20.76649 56.67839 37938 ft 523 kts 210°
2026-04-26 03:29 20.70044 56.64525 37939 ft 524 kts 210°
2026-04-26 03:29 20.63462 56.61227 37938 ft 525 kts 210°
2026-04-26 03:30 20.56853 56.57920 37941 ft 525 kts 210°
2026-04-26 03:30 20.50236 56.54611 37941 ft 525 kts 210°
2026-04-26 03:31 20.43611 56.51302 37936 ft 525 kts 210°
2026-04-26 03:31 20.36984 56.47996 37936 ft 526 kts 210°
2026-04-26 03:32 20.30334 56.44680 37927 ft 527 kts 210°
2026-04-26 03:32 20.23737 56.41381 37922 ft 527 kts 210°
2026-04-26 03:33 20.17097 56.38066 37922 ft 527 kts 210°
2026-04-26 03:33 20.10452 56.34754 37912 ft 527 kts 210°
2026-04-26 03:34 20.03803 56.31445 37922 ft 528 kts 210°
2026-04-26 03:34 19.97081 56.28284 37922 ft 531 kts 202°
2026-04-26 03:35 19.89946 56.26103 37924 ft 534 kts 198°
2026-04-26 03:35 19.82785 56.24167 37924 ft 534 kts 198°
2026-04-26 03:36 19.75572 56.22253 37925 ft 535 kts 197°
2026-04-26 03:36 19.68349 56.20320 37925 ft 535 kts 198°
2026-04-26 03:37 19.61122 56.18373 37931 ft 535 kts 198°
2026-04-26 03:37 19.53899 56.16425 37931 ft 535 kts 198°
2026-04-26 03:38 19.46675 56.14478 37933 ft 535 kts 197°
2026-04-26 03:38 19.39447 56.12532 37933 ft 536 kts 197°
2026-04-26 03:39 19.32253 56.10599 37936 ft 536 kts 197°
2026-04-26 03:39 19.25013 56.08654 37944 ft 536 kts 197°
2026-04-26 03:40 19.17821 56.06724 37941 ft 536 kts 197°
2026-04-26 03:40 19.10565 56.04779 37944 ft 536 kts 197°
2026-04-26 03:41 19.03324 56.02840 37946 ft 536 kts 197°
2026-04-26 03:41 18.96126 56.00914 37947 ft 536 kts 197°
2026-04-26 03:42 18.88878 55.98982 37952 ft 537 kts 197°
2026-04-26 03:42 18.81613 55.97039 37952 ft 537 kts 197°
2026-04-26 03:43 18.74356 55.95101 37953 ft 537 kts 197°
2026-04-26 03:43 18.67157 55.93182 37952 ft 537 kts 197°
2026-04-26 03:44 18.59915 55.91254 37952 ft 537 kts 197°
2026-04-26 03:44 18.52666 55.89325 37955 ft 537 kts 197°
2026-04-26 03:45 18.45416 55.87398 37958 ft 537 kts 197°
2026-04-26 03:45 18.38152 55.85469 37958 ft 537 kts 197°
2026-04-26 03:46 18.30907 55.83546 37951 ft 537 kts 197°
2026-04-26 03:47 18.20021 55.80661 37958 ft 538 kts 197°
2026-04-26 03:47 18.12766 55.78740 37963 ft 538 kts 197°
2026-04-26 03:48 18.05546 55.76830 37959 ft 538 kts 197°
2026-04-26 03:48 17.98247 55.75033 37962 ft 540 kts 190°
2026-04-26 03:49 17.90798 55.73934 37961 ft 541 kts 189°
2026-04-26 03:49 17.83321 55.72975 37958 ft 541 kts 188°
2026-04-26 03:50 17.75827 55.72036 37960 ft 541 kts 188°
2026-04-26 03:50 17.68338 55.71088 37954 ft 541 kts 188°
2026-04-26 03:51 17.60896 55.70137 37957 ft 541 kts 188°
2026-04-26 03:51 17.53409 55.69180 37955 ft 541 kts 188°
2026-04-26 03:52 17.47180 55.68384 37952 ft 542 kts 188°
2026-04-26 03:52 17.39690 55.67427 37954 ft 542 kts 188°
2026-04-26 03:53 17.32213 55.66474 37955 ft 542 kts 188°
2026-04-26 03:53 17.24719 55.65519 37955 ft 542 kts 188°
2026-04-26 03:54 17.17239 55.64567 37956 ft 541 kts 188°
2026-04-26 03:54 17.09798 55.63620 37958 ft 542 kts 188°
2026-04-26 03:55 17.02295 55.62667 37957 ft 542 kts 188°
2026-04-26 03:55 16.94799 55.61715 37958 ft 542 kts 188°
2026-04-26 03:56 16.87300 55.60765 37958 ft 542 kts 188°
2026-04-26 03:56 16.79857 55.59834 37960 ft 542 kts 188°
2026-04-26 03:57 16.72364 55.58896 37960 ft 542 kts 188°
2026-04-26 03:57 16.64872 55.57959 37961 ft 542 kts 188°
2026-04-26 03:58 16.57372 55.57022 37961 ft 542 kts 188°
2026-04-26 03:58 16.49865 55.56085 37962 ft 543 kts 187°
2026-04-26 03:59 16.42403 55.55154 37963 ft 543 kts 187°
2026-04-26 03:59 16.34893 55.54218 37962 ft 543 kts 187°
2026-04-26 04:00 16.27383 55.53283 37963 ft 543 kts 187°
2026-04-26 04:00 16.19865 55.52347 37961 ft 544 kts 187°
2026-04-26 04:01 16.12352 55.51413 37964 ft 544 kts 187°
2026-04-26 04:01 16.04880 55.50485 37964 ft 543 kts 187°
2026-04-26 04:02 15.97365 55.49552 37964 ft 543 kts 187°
2026-04-26 04:02 15.89852 55.48619 37961 ft 544 kts 187°
2026-04-26 04:03 15.82322 55.47686 37967 ft 544 kts 187°
2026-04-26 04:03 15.74841 55.46759 37967 ft 544 kts 187°
2026-04-26 04:04 15.67327 55.45829 37962 ft 544 kts 187°
2026-04-26 04:04 15.59807 55.44899 37965 ft 544 kts 187°
2026-04-26 04:05 15.52274 55.43968 37959 ft 544 kts 187°
2026-04-26 04:05 15.44748 55.43038 37960 ft 544 kts 187°
2026-04-26 04:06 15.37230 55.42111 37961 ft 544 kts 187°
2026-04-26 04:06 15.29715 55.41184 37963 ft 544 kts 187°
2026-04-26 04:07 15.22237 55.40262 37964 ft 543 kts 187°
2026-04-26 04:07 15.14736 55.39337 37964 ft 543 kts 187°
2026-04-26 04:08 15.07225 55.38395 37961 ft 543 kts 187°
2026-04-26 04:08 14.99718 55.37450 37958 ft 543 kts 187°
2026-04-26 04:09 14.92206 55.36509 37963 ft 543 kts 187°
2026-04-26 04:09 14.84702 55.35570 37964 ft 543 kts 187°
2026-04-26 04:10 14.77242 55.34639 37960 ft 543 kts 187°
2026-04-26 04:10 14.69734 55.33702 37963 ft 544 kts 187°
2026-04-26 04:11 14.62216 55.32764 37962 ft 544 kts 187°
2026-04-26 04:11 14.54678 55.31824 37960 ft 544 kts 187°
2026-04-26 04:12 14.47164 55.30888 37961 ft 544 kts 187°
2026-04-26 04:12 14.39689 55.29957 37971 ft 544 kts 187°
2026-04-26 04:13 14.32177 55.29023 37964 ft 544 kts 187°
2026-04-26 04:13 14.24655 55.28088 37953 ft 544 kts 187°
2026-04-26 04:14 14.17142 55.27155 37962 ft 544 kts 187°
2026-04-26 04:14 14.09633 55.26222 37954 ft 543 kts 187°
2026-04-26 04:15 14.02124 55.25291 37968 ft 543 kts 187°
2026-04-26 04:15 13.94654 55.24365 37951 ft 543 kts 187°
2026-04-26 04:16 13.87141 55.23436 37961 ft 543 kts 187°
2026-04-26 04:16 13.79638 55.22491 37947 ft 543 kts 187°
2026-04-26 04:17 13.72130 55.21537 37971 ft 543 kts 187°
2026-04-26 04:17 13.64626 55.20589 37951 ft 543 kts 187°
2026-04-26 04:18 13.57125 55.19644 37959 ft 543 kts 187°
2026-04-26 04:18 13.49617 55.18700 37965 ft 543 kts 186°
2026-04-26 04:19 13.42153 55.17762 37964 ft 543 kts 186°
2026-04-26 04:19 13.34645 55.16819 37949 ft 543 kts 186°
2026-04-26 04:20 13.27141 55.15877 37953 ft 543 kts 186°
2026-04-26 04:20 13.19642 55.14935 37948 ft 543 kts 186°
2026-04-26 04:21 13.12131 55.13994 37957 ft 543 kts 186°
2026-04-26 04:21 13.04671 55.13059 37960 ft 543 kts 186°
2026-04-26 04:22 12.97167 55.12119 37953 ft 543 kts 186°
2026-04-26 04:22 12.89664 55.11180 37954 ft 544 kts 186°
2026-04-26 04:23 12.82147 55.10240 37960 ft 544 kts 186°
2026-04-26 04:23 12.74629 55.09300 37961 ft 544 kts 186°
2026-04-26 04:24 12.67109 55.08360 37948 ft 544 kts 186°
2026-04-26 04:24 12.59634 55.07427 37947 ft 544 kts 186°
2026-04-26 04:25 12.52121 55.06489 37944 ft 544 kts 186°
2026-04-26 04:25 12.44599 55.05551 37957 ft 544 kts 186°
2026-04-26 04:26 12.37069 55.04613 37953 ft 544 kts 186°
2026-04-26 04:26 12.29608 55.03683 37954 ft 543 kts 186°
2026-04-26 04:27 12.22118 55.02750 37960 ft 540 kts 186°
2026-04-26 04:27 12.14647 55.01821 37952 ft 540 kts 186°
2026-04-26 04:28 12.07231 55.00899 37948 ft 540 kts 186°
2026-04-26 04:28 11.99763 55.00099 37956 ft 538 kts 180°
2026-04-26 04:29 11.92281 54.99969 37954 ft 537 kts 179°
2026-04-26 04:29 11.84806 54.99969 37946 ft 537 kts 178°
2026-04-26 04:30 11.77329 54.99988 37960 ft 537 kts 178°
2026-04-26 04:30 11.69844 54.99998 37951 ft 537 kts 178°
2026-04-26 04:31 11.62422 54.99999 37947 ft 536 kts 179°
2026-04-26 04:31 11.54956 54.99998 37947 ft 536 kts 179°
2026-04-26 04:32 11.47484 54.99998 37949 ft 536 kts 179°
2026-04-26 04:32 11.40073 54.99998 37945 ft 536 kts 179°
2026-04-26 04:33 11.32621 55.00004 37939 ft 535 kts 179°
2026-04-26 04:33 11.25173 55.00002 37948 ft 535 kts 179°
2026-04-26 04:34 11.17727 54.99999 37941 ft 535 kts 179°
2026-04-26 04:34 11.10285 54.99998 37945 ft 535 kts 179°
2026-04-26 04:35 11.02841 54.99998 37945 ft 534 kts 179°
2026-04-26 04:35 10.95413 54.99998 37948 ft 533 kts 179°
2026-04-26 04:36 10.87989 54.99998 37943 ft 533 kts 179°
2026-04-26 04:36 10.80559 54.99998 37948 ft 533 kts 179°
2026-04-26 04:37 10.73195 54.99998 37948 ft 533 kts 179°
2026-04-26 04:37 10.65767 54.99998 37951 ft 533 kts 179°
2026-04-26 04:38 10.58349 54.99998 37950 ft 533 kts 179°
2026-04-26 04:38 10.50933 54.99998 37938 ft 533 kts 179°
2026-04-26 04:39 10.43520 54.99998 37946 ft 532 kts 179°
2026-04-26 04:39 10.36112 54.99998 37949 ft 532 kts 179°
2026-04-26 04:40 10.28699 55.00000 37943 ft 532 kts 179°
2026-04-26 04:40 10.21338 54.99999 37941 ft 532 kts 179°
2026-04-26 04:41 10.13922 54.99998 37941 ft 532 kts 179°
2026-04-26 04:41 10.06515 54.99998 37943 ft 532 kts 179°
2026-04-26 04:42 9.99107 54.99998 37940 ft 532 kts 179°
2026-04-26 04:42 9.91700 54.99998 37943 ft 532 kts 179°
2026-04-26 04:43 9.85550 54.99998 37939 ft 532 kts 179°
2026-04-26 04:43 9.78149 54.99998 37943 ft 532 kts 179°
2026-04-26 04:44 9.70742 54.99998 37942 ft 532 kts 179°
2026-04-26 04:44 9.63333 54.99998 37938 ft 532 kts 179°
2026-04-26 04:45 9.55933 54.99998 37943 ft 532 kts 179°
2026-04-26 04:45 9.48577 54.99998 37941 ft 532 kts 179°
2026-04-26 04:46 9.41183 54.99998 37941 ft 532 kts 179°
2026-04-26 04:46 9.33778 54.99998 37943 ft 532 kts 179°
2026-04-26 04:47 9.26377 54.99998 37938 ft 531 kts 179°
2026-04-26 04:47 9.18990 55.00003 37941 ft 531 kts 179°
2026-04-26 04:48 9.07936 54.99999 37940 ft 531 kts 179°
2026-04-26 04:48 9.00545 54.99998 37939 ft 531 kts 179°
2026-04-26 04:49 8.93151 54.99997 37937 ft 530 kts 179°
2026-04-26 04:49 8.85773 54.99998 37939 ft 530 kts 179°
2026-04-26 04:50 8.78406 54.99998 37935 ft 529 kts 179°
2026-04-26 04:50 8.71025 54.99998 37937 ft 529 kts 179°
2026-04-26 04:51 8.63662 54.99998 37937 ft 528 kts 180°
2026-04-26 04:51 8.56372 54.99998 37937 ft 527 kts 180°
2026-04-26 04:52 8.49046 54.99997 37937 ft 526 kts 180°
2026-04-26 04:52 8.41720 54.99998 37937 ft 526 kts 180°
2026-04-26 04:53 8.34396 54.99998 37937 ft 525 kts 180°
2026-04-26 04:53 8.27087 54.99998 37938 ft 525 kts 180°
2026-04-26 04:54 8.19781 54.99998 37935 ft 524 kts 180°
2026-04-26 04:54 8.12475 55.00002 37936 ft 524 kts 180°
2026-04-26 04:55 8.05212 55.00002 37936 ft 524 kts 180°
2026-04-26 04:55 7.97932 54.99999 37933 ft 523 kts 180°
2026-04-26 04:56 7.90652 54.99997 37935 ft 522 kts 180°
2026-04-26 04:56 7.83377 54.99997 37937 ft 522 kts 180°
2026-04-26 04:57 7.76091 54.99997 37939 ft 522 kts 180°
2026-04-26 04:57 7.68824 54.99998 37932 ft 521 kts 180°
2026-04-26 04:58 7.61615 54.99998 37932 ft 521 kts 180°
2026-04-26 04:58 7.54357 54.99998 37932 ft 521 kts 180°
2026-04-26 04:59 7.47094 54.99997 37933 ft 521 kts 180°
2026-04-26 04:59 7.39849 54.99998 37931 ft 519 kts 180°
2026-04-26 05:00 7.32669 54.99998 37936 ft 519 kts 180°
2026-04-26 05:00 7.25431 54.99997 37938 ft 519 kts 180°
2026-04-26 05:01 7.18199 54.99998 37935 ft 519 kts 180°
2026-04-26 05:01 7.10972 54.99998 37932 ft 519 kts 180°
2026-04-26 05:02 7.03750 54.99998 37934 ft 518 kts 180°
2026-04-26 05:02 6.96586 54.99998 37936 ft 518 kts 180°
2026-04-26 05:03 6.89358 54.99998 37931 ft 518 kts 180°
2026-04-26 05:03 6.82141 54.99998 37932 ft 518 kts 180°
2026-04-26 05:04 6.74920 55.00003 37935 ft 519 kts 180°
2026-04-26 05:04 6.67697 55.00000 37938 ft 519 kts 180°
2026-04-26 05:05 6.60528 54.99998 37934 ft 519 kts 180°
2026-04-26 05:05 6.53290 54.99998 37938 ft 519 kts 180°
2026-04-26 05:06 6.46070 54.99998 37937 ft 519 kts 180°
2026-04-26 05:06 6.38882 54.99998 37935 ft 519 kts 180°
2026-04-26 05:07 6.31655 54.99998 37939 ft 519 kts 180°
2026-04-26 05:07 6.24428 54.99998 37941 ft 519 kts 180°
2026-04-26 05:08 6.17212 54.99998 37940 ft 518 kts 180°
2026-04-26 05:08 6.09994 54.99998 37939 ft 518 kts 180°
2026-04-26 05:09 6.02764 54.99998 37939 ft 518 kts 180°
2026-04-26 05:09 5.95599 54.99998 37941 ft 518 kts 180°
2026-04-26 05:10 5.88393 54.99998 37943 ft 517 kts 180°
2026-04-26 05:10 5.81178 54.99998 37939 ft 517 kts 180°
2026-04-26 05:11 5.73975 54.99998 37942 ft 517 kts 180°
2026-04-26 05:11 5.66780 54.99998 37940 ft 517 kts 180°
2026-04-26 05:12 5.59590 54.99998 37941 ft 516 kts 181°
2026-04-26 05:12 5.52465 54.99998 37942 ft 515 kts 181°
2026-04-26 05:13 5.45291 54.99998 37944 ft 514 kts 181°
2026-04-26 05:13 5.38130 55.00007 37941 ft 514 kts 180°
2026-04-26 05:14 5.30969 55.00440 37947 ft 515 kts 175°
2026-04-26 05:14 5.23883 55.01081 37948 ft 515 kts 176°
2026-04-26 05:15 5.16724 55.01679 37945 ft 515 kts 176°
2026-04-26 05:15 5.09580 55.02219 37947 ft 514 kts 176°
2026-04-26 05:16 5.02475 55.02736 37952 ft 514 kts 176°
2026-04-26 05:16 4.95329 55.03256 37944 ft 514 kts 176°
2026-04-26 05:17 4.88182 55.03779 37950 ft 514 kts 176°
2026-04-26 05:17 4.81046 55.04302 37945 ft 514 kts 176°
2026-04-26 05:18 4.73920 55.04824 37941 ft 514 kts 176°
2026-04-26 05:18 4.66782 55.05347 37946 ft 514 kts 177°
2026-04-26 05:19 4.59702 55.05866 37945 ft 513 kts 177°
2026-04-26 05:19 4.52582 55.06387 37946 ft 512 kts 177°
2026-04-26 05:20 4.45467 55.06908 37944 ft 512 kts 177°
2026-04-26 05:20 4.38363 55.07428 37953 ft 512 kts 177°
2026-04-26 05:21 4.31248 55.07949 37961 ft 511 kts 177°
2026-04-26 05:21 4.24147 55.08468 37949 ft 511 kts 177°
2026-04-26 05:22 4.17046 55.08988 37947 ft 511 kts 177°
2026-04-26 05:22 4.09989 55.09504 37946 ft 511 kts 177°
2026-04-26 05:23 4.02900 55.10028 37957 ft 509 kts 177°
2026-04-26 05:23 3.95837 55.10543 37957 ft 507 kts 177°
2026-04-26 05:24 3.88806 55.11055 37947 ft 506 kts 177°
2026-04-26 05:24 3.81804 55.11566 37945 ft 506 kts 177°
2026-04-26 05:25 3.74770 55.12081 37950 ft 506 kts 176°
2026-04-26 05:25 3.67735 55.12595 37949 ft 506 kts 177°
2026-04-26 05:26 3.60740 55.13107 37945 ft 506 kts 177°
2026-04-26 05:26 3.53707 55.13621 37963 ft 506 kts 177°
2026-04-26 05:27 3.46673 55.14136 37956 ft 506 kts 177°
2026-04-26 05:27 3.39632 55.14650 37955 ft 506 kts 177°
2026-04-26 05:28 3.32601 55.15164 37941 ft 506 kts 177°
2026-04-26 05:28 3.25565 55.15679 37942 ft 506 kts 177°
2026-04-26 05:29 3.18579 55.16189 37955 ft 506 kts 177°
2026-04-26 05:29 3.11534 55.16703 37958 ft 506 kts 176°
2026-04-26 05:30 3.04510 55.17217 37957 ft 506 kts 176°
2026-04-26 05:30 2.97528 55.17727 37946 ft 506 kts 176°
2026-04-26 05:31 2.90504 55.18240 37946 ft 506 kts 176°
2026-04-26 05:31 2.83480 55.18753 37950 ft 506 kts 176°
2026-04-26 05:32 2.76452 55.19266 37956 ft 506 kts 176°
2026-04-26 05:32 2.70613 55.19692 37952 ft 506 kts 176°
2026-04-26 05:33 2.63580 55.20205 37950 ft 506 kts 176°
2026-04-26 05:33 2.56545 55.20719 37954 ft 507 kts 176°
2026-04-26 05:34 2.49512 55.21232 37942 ft 507 kts 176°
2026-04-26 05:34 2.42468 55.21746 37956 ft 508 kts 176°
2026-04-26 05:35 2.35414 55.22261 37951 ft 508 kts 176°
2026-04-26 05:35 2.28354 55.22776 37954 ft 508 kts 176°
2026-04-26 05:36 2.21347 55.23287 37944 ft 508 kts 176°
2026-04-26 05:36 2.14294 55.23802 37949 ft 509 kts 176°
2026-04-26 05:37 2.07223 55.24318 37951 ft 509 kts 176°
2026-04-26 05:37 2.00147 55.24834 37950 ft 509 kts 176°
2026-04-26 05:38 1.93083 55.25349 37953 ft 509 kts 176°
2026-04-26 05:38 1.86012 55.25864 37955 ft 509 kts 176°
2026-04-26 05:39 1.78941 55.26380 37953 ft 509 kts 176°
2026-04-26 05:39 1.71887 55.26894 37953 ft 509 kts 176°
2026-04-26 05:40 1.64817 55.27410 37953 ft 509 kts 176°
2026-04-26 05:40 1.57818 55.27920 37959 ft 509 kts 176°
2026-04-26 05:41 1.50724 55.28437 37956 ft 509 kts 176°
2026-04-26 05:41 1.43661 55.28952 37957 ft 509 kts 176°
2026-04-26 05:42 1.36597 55.29467 37955 ft 509 kts 176°
2026-04-26 05:42 1.29527 55.29983 37961 ft 509 kts 176°
2026-04-26 05:43 1.22458 55.30496 37959 ft 509 kts 176°
2026-04-26 05:43 1.15391 55.31009 37955 ft 509 kts 176°
2026-04-26 05:44 1.08376 55.31518 37956 ft 509 kts 176°
2026-04-26 05:44 1.01309 55.32032 37957 ft 509 kts 176°
2026-04-26 05:45 0.94243 55.32546 37957 ft 509 kts 176°
2026-04-26 05:45 0.87190 55.33059 37960 ft 507 kts 176°
2026-04-26 05:46 0.80148 55.33571 37960 ft 507 kts 176°
2026-04-26 05:46 0.73106 55.34083 37960 ft 507 kts 176°
2026-04-26 05:47 0.66097 55.34592 37961 ft 507 kts 176°
2026-04-26 05:47 0.59059 55.35104 37962 ft 506 kts 176°
2026-04-26 05:48 0.52021 55.35615 37964 ft 505 kts 176°
2026-04-26 05:48 0.45052 55.36122 37963 ft 505 kts 176°
2026-04-26 05:49 0.34528 55.36887 37961 ft 505 kts 176°
2026-04-26 05:50 0.27508 55.37397 37961 ft 505 kts 176°
2026-04-26 05:50 0.20492 55.37907 37962 ft 505 kts 176°
2026-04-26 05:51 0.13476 55.38417 37957 ft 505 kts 176°
2026-04-26 05:51 0.06498 55.38924 37966 ft 505 kts 176°
2026-04-26 05:52 -0.00521 55.39434 37959 ft 505 kts 176°
2026-04-26 05:52 -0.07535 55.39944 37966 ft 504 kts 176°
2026-04-26 05:53 -0.14519 55.40451 37964 ft 503 kts 176°
2026-04-26 05:53 -0.21467 55.40956 37962 ft 503 kts 176°
2026-04-26 05:54 -0.28458 55.41465 37960 ft 503 kts 176°
2026-04-26 05:54 -0.35462 55.41974 37965 ft 506 kts 176°
2026-04-26 05:55 -0.42544 55.42488 37959 ft 512 kts 176°
2026-04-26 05:55 -0.49656 55.43005 37960 ft 513 kts 176°
2026-04-26 05:56 -0.56775 55.43523 37959 ft 513 kts 176°
2026-04-26 05:56 -0.63842 55.44037 37951 ft 513 kts 176°
2026-04-26 05:57 -0.70976 55.44555 37954 ft 514 kts 176°
2026-04-26 05:57 -0.78114 55.45074 37956 ft 514 kts 176°
2026-04-26 05:58 -0.85264 55.45594 37954 ft 514 kts 176°
2026-04-26 05:58 -0.92362 55.46110 37958 ft 514 kts 176°
2026-04-26 05:59 -0.99490 55.46716 37958 ft 515 kts 172°
2026-04-26 05:59 -1.06561 55.47851 37954 ft 515 kts 171°
2026-04-26 06:00 -1.13644 55.48963 37952 ft 515 kts 172°
2026-04-26 06:00 -1.20734 55.50041 37954 ft 515 kts 172°
2026-04-26 06:01 -1.27822 55.51108 37952 ft 515 kts 172°
2026-04-26 06:01 -1.34878 55.52167 37952 ft 516 kts 172°
2026-04-26 06:02 -1.41993 55.53235 37949 ft 518 kts 172°
2026-04-26 06:02 -1.49129 55.54305 37949 ft 518 kts 172°
2026-04-26 06:03 -1.56272 55.55376 37950 ft 518 kts 172°
2026-04-26 06:03 -1.63406 55.56446 37949 ft 517 kts 172°
2026-04-26 06:04 -1.70521 55.57513 37946 ft 517 kts 172°
2026-04-26 06:04 -1.77591 55.58573 37948 ft 517 kts 172°
2026-04-26 06:05 -1.84703 55.59640 37947 ft 517 kts 172°
2026-04-26 06:05 -1.91816 55.60707 37944 ft 516 kts 172°
2026-04-26 06:06 -1.98921 55.61772 37944 ft 516 kts 172°
2026-04-26 06:06 -2.06025 55.62838 37944 ft 515 kts 172°
2026-04-26 06:07 -2.13118 55.63902 37944 ft 515 kts 172°
2026-04-26 06:07 -2.20220 55.64968 37944 ft 515 kts 172°
2026-04-26 06:08 -2.27320 55.66034 37941 ft 516 kts 172°
2026-04-26 06:08 -2.34374 55.67092 37938 ft 516 kts 172°
2026-04-26 06:09 -2.41467 55.68157 37839 ft 510 kts 172°
2026-04-26 06:09 -2.44940 55.68679 37576 ft 501 kts 172°
2026-04-26 06:09 -2.48358 55.69192 37309 ft 491 kts 172°
2026-04-26 06:09 -2.51704 55.69695 37058 ft 482 kts 172°
2026-04-26 06:10 -2.54992 55.70189 36804 ft 473 kts 172°
2026-04-26 06:10 -2.58230 55.70675 36551 ft 468 kts 172°
2026-04-26 06:10 -2.61435 55.71156 36310 ft 465 kts 172°
2026-04-26 06:10 -2.64631 55.71636 36076 ft 462 kts 172°
2026-04-26 06:11 -2.67803 55.72112 35830 ft 459 kts 172°
2026-04-26 06:11 -2.70955 55.72585 35587 ft 456 kts 172°
2026-04-26 06:11 -2.74087 55.73055 35356 ft 454 kts 172°
2026-04-26 06:11 -2.77198 55.73523 35123 ft 451 kts 172°
2026-04-26 06:12 -2.80256 55.73982 34896 ft 448 kts 172°
2026-04-26 06:12 -2.83332 55.74444 34666 ft 446 kts 172°
2026-04-26 06:12 -2.86392 55.74904 34444 ft 443 kts 172°
2026-04-26 06:12 -2.89441 55.75362 34217 ft 441 kts 172°
2026-04-26 06:13 -2.92465 55.75816 33992 ft 438 kts 173°
2026-04-26 06:13 -2.95471 55.76268 33743 ft 435 kts 172°
2026-04-26 06:13 -2.98459 55.76717 33485 ft 433 kts 173°
2026-04-26 06:13 -3.01423 55.77162 33242 ft 431 kts 172°
2026-04-26 06:14 -3.04386 55.77607 32983 ft 429 kts 173°
2026-04-26 06:14 -3.07336 55.78050 32744 ft 427 kts 172°
2026-04-26 06:14 -3.10266 55.78491 32488 ft 425 kts 173°
2026-04-26 06:14 -3.13162 55.78926 32256 ft 417 kts 172°
2026-04-26 06:15 -3.15973 55.79349 31909 ft 412 kts 173°
2026-04-26 06:15 -3.18787 55.79772 31541 ft 408 kts 172°
2026-04-26 06:15 -3.21583 55.80192 31154 ft 404 kts 172°
2026-04-26 06:15 -3.24355 55.80609 30765 ft 401 kts 172°
2026-04-26 06:16 -3.27113 55.81024 30379 ft 398 kts 172°
2026-04-26 06:16 -3.29842 55.81434 29977 ft 396 kts 172°
2026-04-26 06:16 -3.32563 55.81843 29554 ft 392 kts 172°
2026-04-26 06:16 -3.35245 55.82246 29169 ft 388 kts 172°
2026-04-26 06:17 -3.37903 55.82646 28769 ft 384 kts 172°
2026-04-26 06:17 -3.40531 55.83040 28390 ft 380 kts 172°
2026-04-26 06:17 -3.43144 55.83434 28009 ft 377 kts 172°
2026-04-26 06:17 -3.45698 55.83817 27633 ft 373 kts 172°
2026-04-26 06:18 -3.48258 55.84202 27266 ft 370 kts 172°
2026-04-26 06:18 -3.50788 55.84583 26882 ft 366 kts 172°
2026-04-26 06:18 -3.53288 55.85115 26515 ft 370 kts 159°
2026-04-26 06:18 -3.55530 55.86397 26174 ft 375 kts 139°
2026-04-26 06:19 -3.57213 55.88378 25828 ft 376 kts 120°
2026-04-26 06:19 -3.58122 55.90818 25480 ft 375 kts 100°
2026-04-26 06:19 -3.58144 55.93417 25140 ft 374 kts 80°
2026-04-26 06:19 -3.57280 55.95853 24808 ft 373 kts 60°
2026-04-26 06:20 -3.55633 55.97843 24463 ft 372 kts 40°
2026-04-26 06:20 -3.53413 55.99139 24138 ft 372 kts 20°
2026-04-26 06:20 -3.50873 55.99592 23817 ft 372 kts
2026-04-26 06:20 -3.48339 55.99144 23499 ft 372 kts 340°
2026-04-26 06:21 -3.46139 55.97874 23112 ft 371 kts 320°
2026-04-26 06:21 -3.44489 55.95911 22732 ft 371 kts 299°
2026-04-26 06:21 -3.43616 55.93492 22352 ft 369 kts 279°
2026-04-26 06:21 -3.43635 55.90948 21973 ft 366 kts 258°
2026-04-26 06:22 -3.44534 55.88586 21605 ft 363 kts 237°
2026-04-26 06:22 -3.46180 55.86718 21241 ft 359 kts 216°
2026-04-26 06:22 -3.48374 55.85561 20882 ft 355 kts 195°
2026-04-26 06:22 -3.50785 55.85275 20526 ft 350 kts 174°
2026-04-26 06:23 -3.53118 55.85882 20171 ft 345 kts 152°
2026-04-26 06:23 -3.55026 55.87280 19826 ft 340 kts 131°
2026-04-26 06:23 -3.56260 55.89269 19475 ft 337 kts 109°
2026-04-26 06:23 -3.56648 55.91557 19138 ft 334 kts 87°
2026-04-26 06:24 -3.56154 55.93810 18815 ft 333 kts 68°
2026-04-26 06:24 -3.55095 55.95865 18469 ft 333 kts 54°
2026-04-26 06:24 -3.53431 55.97449 18139 ft 333 kts 32°
2026-04-26 06:24 -3.52043 55.98096 17883 ft 333 kts 18°
2026-04-26 06:25 -3.48998 55.98237 17376 ft 334 kts 348°
2026-04-26 06:25 -3.46874 55.97318 17001 ft 335 kts 326°
2026-04-26 06:25 -3.45707 55.96266 16746 ft 336 kts 311°
2026-04-26 06:25 -3.44367 55.94389 16391 ft 336 kts 302°
2026-04-26 06:26 -3.43418 55.92261 16031 ft 337 kts 286°
2026-04-26 06:26 -3.43211 55.89942 15673 ft 335 kts 263°
2026-04-26 06:26 -3.43928 55.87757 15315 ft 331 kts 238°
2026-04-26 06:26 -3.45457 55.86071 14969 ft 326 kts 214°
2026-04-26 06:27 -3.47494 55.85139 14621 ft 322 kts 191°
2026-04-26 06:27 -3.49712 55.85029 14272 ft 320 kts 173°
2026-04-26 06:27 -3.51912 55.85330 13944 ft 320 kts 170°
2026-04-26 06:27 -3.54099 55.85728 13580 ft 318 kts 162°
2026-04-26 06:28 -3.56024 55.86717 13220 ft 314 kts 145°
2026-04-26 06:28 -3.57848 55.87922 12838 ft 313 kts 145°
2026-04-26 06:28 -3.59659 55.89109 12465 ft 311 kts 146°
2026-04-26 06:28 -3.61483 55.90282 12104 ft 310 kts 146°
2026-04-26 06:29 -3.63303 55.91430 11730 ft 308 kts 147°
2026-04-26 06:29 -3.65118 55.92551 11379 ft 306 kts 148°
2026-04-26 06:29 -3.66941 55.93654 11032 ft 305 kts 148°
2026-04-26 06:29 -3.68738 55.94720 10689 ft 303 kts 149°
2026-04-26 06:30 -3.70562 55.95779 10332 ft 302 kts 149°
2026-04-26 06:30 -3.72383 55.96816 9998 ft 301 kts 150°
2026-04-26 06:30 -3.74207 55.97831 9648 ft 299 kts 150°
2026-04-26 06:30 -3.76027 55.98819 9236 ft 297 kts 151°
2026-04-26 06:31 -3.77849 55.99786 8870 ft 295 kts 152°
2026-04-26 06:31 -3.79674 56.00729 8507 ft 293 kts 153°
2026-04-26 06:31 -3.81490 56.01645 8150 ft 291 kts 154°
2026-04-26 06:31 -3.83305 56.02537 7785 ft 290 kts 154°
2026-04-26 06:32 -3.85119 56.03406 7426 ft 288 kts 156°
2026-04-26 06:32 -3.86924 56.04245 7076 ft 286 kts 156°
2026-04-26 06:32 -3.88708 56.05052 6723 ft 283 kts 157°
2026-04-26 06:32 -3.90503 56.05831 6383 ft 281 kts 159°
2026-04-26 06:33 -3.92389 56.06316 6027 ft 278 kts 175°
2026-04-26 06:33 -3.94312 56.06378 5669 ft 275 kts 182°
2026-04-26 06:33 -3.96220 56.06316 5296 ft 273 kts 184°
2026-04-26 06:33 -3.98113 56.06228 4940 ft 271 kts 184°
2026-04-26 06:34 -3.99993 56.06132 4580 ft 270 kts 184°
2026-04-26 06:34 -4.01858 56.06032 4210 ft 268 kts 184°
2026-04-26 06:34 -4.03726 56.05929 3851 ft 268 kts 184°
2026-04-26 06:34 -4.05583 56.05825 3482 ft 266 kts 184°
2026-04-26 06:35 -4.07428 56.05721 3145 ft 263 kts 184°
2026-04-26 06:35 -4.09241 56.05618 3003 ft 260 kts 184°
2026-04-26 06:35 -4.11051 56.05515 2996 ft 261 kts 184°
2026-04-26 06:35 -4.12862 56.05412 2991 ft 261 kts 184°
2026-04-26 06:36 -4.14671 56.05309 2993 ft 260 kts 184°
2026-04-26 06:36 -4.16479 56.05206 2994 ft 261 kts 184°
2026-04-26 06:36 -4.18291 56.05103 2992 ft 261 kts 184°
2026-04-26 06:36 -4.20107 56.05000 2989 ft 261 kts 184°
2026-04-26 06:37 -4.21899 56.04898 2995 ft 261 kts 184°
2026-04-26 06:37 -4.23709 56.04795 2995 ft 261 kts 184°
2026-04-26 06:37 -4.25530 56.04691 2997 ft 261 kts 184°
2026-04-26 06:37 -4.27344 56.04588 2988 ft 261 kts 184°
2026-04-26 06:38 -4.29157 56.04485 2992 ft 260 kts 184°
2026-04-26 06:38 -4.30968 56.04382 2992 ft 260 kts 184°
2026-04-26 06:38 -4.32780 56.04279 2988 ft 261 kts 184°
2026-04-26 06:38 -4.34585 56.04176 2994 ft 261 kts 184°
2026-04-26 06:39 -4.36400 56.04073 2992 ft 261 kts 184°
2026-04-26 06:39 -4.38209 56.03970 2988 ft 261 kts 184°
2026-04-26 06:39 -4.40003 56.03868 2990 ft 261 kts 184°
2026-04-26 06:39 -4.41836 56.03763 2991 ft 261 kts 184°
2026-04-26 06:40 -4.43649 56.03660 2991 ft 260 kts 184°
2026-04-26 06:40 -4.45454 56.03557 2987 ft 260 kts 184°
2026-04-26 06:40 -4.47239 56.03456 2995 ft 260 kts 184°
2026-04-26 06:40 -4.49040 56.03354 2992 ft 260 kts 184°
2026-04-26 06:41 -4.50848 56.03251 2991 ft 259 kts 184°
2026-04-26 06:41 -4.52655 56.03148 2993 ft 260 kts 184°
2026-04-26 06:41 -4.54462 56.03045 2993 ft 260 kts 184°
2026-04-26 06:41 -4.56269 56.02942 2994 ft 260 kts 184°
2026-04-26 06:42 -4.58079 56.02839 2992 ft 260 kts 184°
2026-04-26 06:42 -4.59886 56.02736 2993 ft 260 kts 184°
2026-04-26 06:42 -4.61693 56.02633 2994 ft 260 kts 184°
2026-04-26 06:42 -4.63499 56.02530 2991 ft 260 kts 184°
2026-04-26 06:43 -4.65298 56.02395 2987 ft 259 kts 189°
2026-04-26 06:43 -4.67003 56.01842 2993 ft 258 kts 210°
2026-04-26 06:43 -4.68337 56.00671 2991 ft 258 kts 234°
2026-04-26 06:43 -4.69066 55.99028 2996 ft 259 kts 252°
2026-04-26 06:44 -4.69551 55.97303 2992 ft 260 kts 254°
2026-04-26 06:44 -4.70019 55.95550 2993 ft 260 kts 253°
2026-04-26 06:44 -4.70489 55.93799 2990 ft 261 kts 254°
2026-04-26 06:44 -4.70965 55.92041 2993 ft 261 kts 253°
2026-04-26 06:45 -4.71441 55.90284 2984 ft 262 kts 253°
2026-04-26 06:45 -4.71919 55.88525 2790 ft 260 kts 253°
2026-04-26 06:45 -4.72393 55.86786 2374 ft 258 kts 253°
2026-04-26 06:45 -4.72864 55.85060 2059 ft 256 kts 253°
2026-04-26 06:46 -4.73333 55.83340 1989 ft 257 kts 253°
2026-04-26 06:46 -4.73804 55.81612 1985 ft 257 kts 253°
2026-04-26 06:46 -4.74269 55.79906 1990 ft 257 kts 253°
2026-04-26 06:46 -4.74746 55.78158 1981 ft 257 kts 253°
2026-04-26 06:47 -4.75212 55.76447 1995 ft 258 kts 253°
2026-04-26 06:47 -4.75684 55.74715 2001 ft 258 kts 253°
2026-04-26 06:47 -4.76153 55.72992 1998 ft 250 kts 253°
2026-04-26 06:47 -4.76594 55.71369 1998 ft 232 kts 253°
2026-04-26 06:48 -4.77002 55.69866 1994 ft 214 kts 253°
2026-04-26 06:48 -4.77375 55.68484 1995 ft 199 kts 253°
2026-04-26 06:48 -4.77518 55.67115 1987 ft 199 kts 275°
2026-04-26 06:48 -4.77125 55.65797 1981 ft 201 kts 300°
2026-04-26 06:49 -4.76257 55.64692 1982 ft 203 kts 308°
2026-04-26 06:49 -4.75386 55.63570 1998 ft 203 kts 302°
2026-04-26 06:49 -4.74626 55.62422 1995 ft 189 kts 302°
2026-04-26 06:49 -4.73906 55.61396 2016 ft 171 kts 303°
2026-04-26 06:50 -4.73236 55.60455 2006 ft 163 kts 303°
2026-04-26 06:50 -4.72583 55.59525 1939 ft 163 kts 302°
2026-04-26 06:50 -4.71941 55.58606 1740 ft 159 kts 302°
2026-04-26 06:50 -4.71324 55.57730 1532 ft 151 kts 302°
2026-04-26 06:51 -4.70737 55.56891 1338 ft 144 kts 303°
2026-04-26 06:51 -4.69576 55.55240 764 ft 145 kts 303°
2026-04-26 06:51 -4.68992 55.54420 419 ft 146 kts 306°
2026-04-26 06:52 -4.68410 55.53582 183 ft 150 kts 306°
2026-04-26 06:52 -4.67814 55.52726 32 ft 147 kts 304°
2026-04-26 06:52 -4.67303 55.51998 30 ft 94 kts 305°
2026-04-26 06:52 -4.67082 55.51687 29 ft 23 kts 305°
2026-04-26 06:53 -4.67037 55.51623 29 ft 8 kts 305°
2026-04-26 06:53 -4.66992 55.51559 29 ft 27 kts 305°
2026-04-26 06:53 -4.66812 55.51302 31 ft 45 kts 305°
2026-04-26 06:53 -4.66681 55.51093 31 ft 22 kts 276°
2026-04-26 06:54 -4.66740 55.51052 30 ft 19 kts 169°
2026-04-26 06:54 -4.66809 55.51114 29 ft 13 kts 124°
2026-04-26 06:54 -4.66876 55.51189 29 ft 14 kts 148°
2026-04-26 06:54 -4.66889 55.51194 29 ft 3 kts 158°
2026-04-26 06:55 -4.66946 55.51181 29 ft 8 kts 212°
2026-04-26 06:55 -4.66984 55.51157 28 ft 8 kts 212°
2026-04-26 06:55 -4.66995 55.51151 28 ft 0 kts 212°